Today
| Time | Wind Dr | Wind Spd mph |
Wind Gust mph |
Hum In % |
Humid % |
TempI F |
Temp F |
Raw Bar in |
Tot Rain in |
UV | Solar W/sqm |
DailyRain in |
HourRain in |
24HrRain in |
RainRate in |
|---|---|---|---|---|---|---|---|---|---|---|---|---|---|---|---|
| 05/07/26 12:01:30 AM | 37 | 0.0 | 0.0 | 53 | 75 | 69.4 | 59.0 | 30.065 | 7.26 | 0.0 | 0 | 0.00 | 0.00 | 0.00 | 0.00 |
| 05/07/26 12:02:22 AM | 38 | 0.0 | 0.0 | 53 | 75 | 69.4 | 59.0 | 30.065 | 7.26 | 0.0 | 0 | 0.00 | 0.00 | 0.00 | 0.00 |
| 05/07/26 12:03:28 AM | 34 | 0.0 | 0.0 | 53 | 75 | 69.4 | 58.9 | 30.064 | 7.26 | 0.0 | 0 | 0.00 | 0.00 | 0.00 | 0.00 |
| 05/07/26 12:04:22 AM | 36 | 0.0 | 0.0 | 53 | 75 | 69.4 | 58.9 | 30.063 | 7.26 | 0.0 | 0 | 0.00 | 0.00 | 0.00 | 0.00 |
| 05/07/26 12:05:32 AM | 36 | 0.0 | 0.0 | 53 | 75 | 69.4 | 58.9 | 30.063 | 7.26 | 0.0 | 0 | 0.00 | 0.00 | 0.00 | 0.00 |
| 05/07/26 12:06:26 AM | 38 | 0.0 | 0.0 | 53 | 75 | 69.4 | 58.9 | 30.065 | 7.26 | 0.0 | 0 | 0.00 | 0.00 | 0.00 | 0.00 |
| 05/07/26 12:07:18 AM | 32 | 0.0 | 0.0 | 53 | 75 | 69.4 | 58.8 | 30.062 | 7.26 | 0.0 | 0 | 0.00 | 0.00 | 0.00 | 0.00 |
| 05/07/26 12:08:24 AM | 35 | 0.0 | 0.0 | 53 | 76 | 69.4 | 58.8 | 30.060 | 7.26 | 0.0 | 0 | 0.00 | 0.00 | 0.00 | 0.00 |
| 05/07/26 12:09:16 AM | 37 | 0.0 | 0.0 | 53 | 76 | 69.4 | 58.8 | 30.062 | 7.26 | 0.0 | 0 | 0.00 | 0.00 | 0.00 | 0.00 |
| 05/07/26 12:10:29 AM | 32 | 0.0 | 0.0 | 53 | 76 | 69.4 | 58.8 | 30.062 | 7.26 | 0.0 | 0 | 0.00 | 0.00 | 0.00 | 0.00 |
| 05/07/26 12:11:20 AM | 31 | 0.0 | 0.0 | 53 | 76 | 69.4 | 58.8 | 30.064 | 7.26 | 0.0 | 0 | 0.00 | 0.00 | 0.00 | 0.00 |
| 05/07/26 12:12:33 AM | 31 | 0.0 | 0.0 | 53 | 76 | 69.4 | 58.8 | 30.063 | 7.26 | 0.0 | 0 | 0.00 | 0.00 | 0.00 | 0.00 |
| 05/07/26 12:13:22 AM | 36 | 0.0 | 0.0 | 53 | 76 | 69.4 | 58.7 | 30.063 | 7.26 | 0.0 | 0 | 0.00 | 0.00 | 0.00 | 0.00 |
| 05/07/26 12:14:35 AM | 37 | 0.0 | 0.0 | 53 | 76 | 69.4 | 58.7 | 30.061 | 7.26 | 0.0 | 0 | 0.00 | 0.00 | 0.00 | 0.00 |
| 05/07/26 12:15:48 AM | 36 | 0.0 | 0.0 | 53 | 76 | 69.4 | 58.7 | 30.062 | 7.26 | 0.0 | 0 | 0.00 | 0.00 | 0.00 | 0.00 |
| 05/07/26 12:16:18 AM | 36 | 0.0 | 0.0 | 53 | 76 | 69.4 | 58.7 | 30.059 | 7.26 | 0.0 | 0 | 0.00 | 0.00 | 0.00 | 0.00 |
| 05/07/26 12:17:31 AM | 36 | 0.0 | 0.0 | 53 | 76 | 69.4 | 58.7 | 30.058 | 7.26 | 0.0 | 0 | 0.00 | 0.00 | 0.00 | 0.00 |
| 05/07/26 12:18:23 AM | 38 | 0.0 | 0.0 | 53 | 76 | 69.4 | 58.7 | 30.059 | 7.26 | 0.0 | 0 | 0.00 | 0.00 | 0.00 | 0.00 |
| 05/07/26 12:19:30 AM | 38 | 0.0 | 0.0 | 53 | 76 | 69.4 | 58.7 | 30.058 | 7.26 | 0.0 | 0 | 0.00 | 0.00 | 0.00 | 0.00 |
| 05/07/26 12:20:22 AM | 34 | 0.0 | 0.0 | 53 | 76 | 69.4 | 58.7 | 30.059 | 7.26 | 0.0 | 0 | 0.00 | 0.00 | 0.00 | 0.00 |
| 05/07/26 12:21:34 AM | 36 | 0.0 | 0.0 | 53 | 76 | 69.4 | 58.6 | 30.059 | 7.26 | 0.0 | 0 | 0.00 | 0.00 | 0.00 | 0.00 |
| 05/07/26 12:22:26 AM | 36 | 0.0 | 0.0 | 53 | 76 | 69.4 | 58.6 | 30.059 | 7.26 | 0.0 | 0 | 0.00 | 0.00 | 0.00 | 0.00 |
| 05/07/26 12:23:18 AM | 30 | 0.0 | 0.0 | 53 | 76 | 69.4 | 58.6 | 30.058 | 7.26 | 0.0 | 0 | 0.00 | 0.00 | 0.00 | 0.00 |
| 05/07/26 12:24:25 AM | 36 | 0.0 | 0.0 | 53 | 76 | 69.4 | 58.6 | 30.056 | 7.26 | 0.0 | 0 | 0.00 | 0.00 | 0.00 | 0.00 |
| 05/07/26 12:25:16 AM | 34 | 0.0 | 0.0 | 53 | 76 | 69.4 | 58.6 | 30.058 | 7.26 | 0.0 | 0 | 0.00 | 0.00 | 0.00 | 0.00 |
| 05/07/26 12:26:32 AM | 37 | 0.0 | 0.0 | 53 | 76 | 69.4 | 58.6 | 30.058 | 7.26 | 0.0 | 0 | 0.00 | 0.00 | 0.00 | 0.00 |
| 05/07/26 12:27:24 AM | 34 | 0.0 | 0.0 | 53 | 76 | 69.4 | 58.6 | 30.056 | 7.26 | 0.0 | 0 | 0.00 | 0.00 | 0.00 | 0.00 |
| 05/07/26 12:28:37 AM | 37 | 0.0 | 0.0 | 53 | 76 | 69.4 | 58.6 | 30.059 | 7.26 | 0.0 | 0 | 0.00 | 0.00 | 0.00 | 0.00 |
| 05/07/26 12:29:29 AM | 36 | 0.0 | 0.0 | 53 | 76 | 69.4 | 58.6 | 30.056 | 7.26 | 0.0 | 0 | 0.00 | 0.00 | 0.00 | 0.00 |
| 05/07/26 12:30:39 AM | 34 | 0.0 | 0.0 | 53 | 76 | 69.4 | 58.6 | 30.058 | 7.26 | 0.0 | 0 | 0.00 | 0.00 | 0.00 | 0.00 |
| 05/07/26 12:31:27 AM | 39 | 0.0 | 0.0 | 53 | 76 | 69.3 | 58.5 | 30.058 | 7.26 | 0.0 | 0 | 0.00 | 0.00 | 0.00 | 0.00 |
| 05/07/26 12:32:19 AM | 32 | 0.0 | 0.0 | 53 | 76 | 69.4 | 58.5 | 30.056 | 7.26 | 0.0 | 0 | 0.00 | 0.00 | 0.00 | 0.00 |
| 05/07/26 12:33:32 AM | 38 | 0.0 | 0.0 | 53 | 77 | 69.4 | 58.5 | 30.059 | 7.26 | 0.0 | 0 | 0.00 | 0.00 | 0.00 | 0.00 |
| 05/07/26 12:34:24 AM | 31 | 0.0 | 0.0 | 53 | 77 | 69.4 | 58.5 | 30.057 | 7.26 | 0.0 | 0 | 0.00 | 0.00 | 0.00 | 0.00 |
| 05/07/26 12:35:31 AM | 35 | 0.0 | 0.0 | 53 | 77 | 69.4 | 58.5 | 30.057 | 7.26 | 0.0 | 0 | 0.00 | 0.00 | 0.00 | 0.00 |
| 05/07/26 12:36:25 AM | 36 | 0.0 | 0.0 | 53 | 77 | 69.4 | 58.4 | 30.058 | 7.26 | 0.0 | 0 | 0.00 | 0.00 | 0.00 | 0.00 |
| 05/07/26 12:37:35 AM | 38 | 0.0 | 0.0 | 53 | 77 | 69.4 | 58.4 | 30.057 | 7.26 | 0.0 | 0 | 0.00 | 0.00 | 0.00 | 0.00 |
| 05/07/26 12:38:27 AM | 36 | 0.0 | 0.0 | 53 | 77 | 69.4 | 58.4 | 30.058 | 7.26 | 0.0 | 0 | 0.00 | 0.00 | 0.00 | 0.00 |
| 05/07/26 12:39:19 AM | 38 | 0.0 | 0.0 | 53 | 77 | 69.3 | 58.3 | 30.056 | 7.26 | 0.0 | 0 | 0.00 | 0.00 | 0.00 | 0.00 |
| 05/07/26 12:40:29 AM | 38 | 0.0 | 0.0 | 53 | 77 | 69.4 | 58.3 | 30.056 | 7.26 | 0.0 | 0 | 0.00 | 0.00 | 0.00 | 0.00 |
| 05/07/26 12:41:20 AM | 38 | 0.0 | 0.0 | 53 | 77 | 69.3 | 58.2 | 30.056 | 7.26 | 0.0 | 0 | 0.00 | 0.00 | 0.00 | 0.00 |
| 05/07/26 12:42:33 AM | 37 | 0.0 | 0.0 | 53 | 77 | 69.3 | 58.2 | 30.057 | 7.26 | 0.0 | 0 | 0.00 | 0.00 | 0.00 | 0.00 |
| 05/07/26 12:43:22 AM | 32 | 0.0 | 0.0 | 53 | 77 | 69.4 | 58.2 | 30.057 | 7.26 | 0.0 | 0 | 0.00 | 0.00 | 0.00 | 0.00 |
| 05/07/26 12:44:17 AM | 34 | 0.0 | 0.0 | 53 | 77 | 69.4 | 58.1 | 30.058 | 7.26 | 0.0 | 0 | 0.00 | 0.00 | 0.00 | 0.00 |
| 05/07/26 12:45:30 AM | 37 | 0.0 | 0.0 | 53 | 77 | 69.3 | 58.1 | 30.056 | 7.26 | 0.0 | 0 | 0.00 | 0.00 | 0.00 | 0.00 |
| 05/07/26 12:46:36 AM | 38 | 0.0 | 0.0 | 53 | 77 | 69.3 | 58.1 | 30.056 | 7.26 | 0.0 | 0 | 0.00 | 0.00 | 0.00 | 0.00 |
| 05/07/26 12:47:28 AM | 35 | 0.0 | 0.0 | 53 | 77 | 69.4 | 58.1 | 30.056 | 7.26 | 0.0 | 0 | 0.00 | 0.00 | 0.00 | 0.00 |
| 05/07/26 12:48:20 AM | 37 | 0.0 | 0.0 | 53 | 77 | 69.3 | 58.0 | 30.055 | 7.26 | 0.0 | 0 | 0.00 | 0.00 | 0.00 | 0.00 |
| 05/07/26 12:49:33 AM | 37 | 0.0 | 0.0 | 53 | 77 | 69.3 | 58.0 | 30.053 | 7.26 | 0.0 | 0 | 0.00 | 0.00 | 0.00 | 0.00 |
| 05/07/26 12:50:25 AM | 37 | 0.0 | 0.0 | 53 | 77 | 69.3 | 58.0 | 30.055 | 7.26 | 0.0 | 0 | 0.00 | 0.00 | 0.00 | 0.00 |
| 05/07/26 12:51:32 AM | 34 | 0.0 | 0.0 | 53 | 77 | 69.4 | 58.0 | 30.057 | 7.26 | 0.0 | 0 | 0.00 | 0.00 | 0.00 | 0.00 |
| 05/07/26 12:52:26 AM | 35 | 0.0 | 0.0 | 53 | 77 | 69.3 | 57.9 | 30.054 | 7.26 | 0.0 | 0 | 0.00 | 0.00 | 0.00 | 0.00 |
| 05/07/26 12:53:18 AM | 38 | 0.0 | 0.0 | 53 | 77 | 69.4 | 57.9 | 30.054 | 7.26 | 0.0 | 0 | 0.00 | 0.00 | 0.00 | 0.00 |
| 05/07/26 12:54:31 AM | 34 | 0.0 | 0.0 | 53 | 77 | 69.3 | 57.9 | 30.055 | 7.26 | 0.0 | 0 | 0.00 | 0.00 | 0.00 | 0.00 |
| 05/07/26 12:55:23 AM | 34 | 0.0 | 0.0 | 53 | 77 | 69.3 | 57.8 | 30.054 | 7.26 | 0.0 | 0 | 0.00 | 0.00 | 0.00 | 0.00 |
| 05/07/26 12:56:33 AM | 36 | 0.0 | 0.0 | 53 | 77 | 69.4 | 57.8 | 30.056 | 7.26 | 0.0 | 0 | 0.00 | 0.00 | 0.00 | 0.00 |
| 05/07/26 12:57:24 AM | 34 | 0.0 | 0.0 | 53 | 78 | 69.3 | 57.7 | 30.053 | 7.26 | 0.0 | 0 | 0.00 | 0.00 | 0.00 | 0.00 |
| 05/07/26 12:58:34 AM | 34 | 0.0 | 0.0 | 53 | 78 | 69.4 | 57.7 | 30.057 | 7.26 | 0.0 | 0 | 0.00 | 0.00 | 0.00 | 0.00 |
| 05/07/26 12:59:26 AM | 36 | 0.0 | 0.0 | 53 | 78 | 69.3 | 57.7 | 30.056 | 7.26 | 0.0 | 0 | 0.00 | 0.00 | 0.00 | 0.00 |
| 05/07/26 1:00:21 AM | 37 | 0.0 | 0.0 | 53 | 78 | 69.3 | 57.7 | 30.056 | 7.26 | 0.0 | 0 | 0.00 | 0.00 | 0.00 | 0.00 |
| 05/07/26 1:01:34 AM | 37 | 0.0 | 0.0 | 53 | 78 | 69.3 | 57.7 | 30.054 | 7.26 | 0.0 | 0 | 0.00 | 0.00 | 0.00 | 0.00 |
| 05/07/26 1:02:20 AM | 34 | 0.0 | 0.0 | 53 | 78 | 69.3 | 57.7 | 30.055 | 7.26 | 0.0 | 0 | 0.00 | 0.00 | 0.00 | 0.00 |
| 05/07/26 1:03:32 AM | 35 | 0.0 | 0.0 | 53 | 78 | 69.3 | 57.6 | 30.053 | 7.26 | 0.0 | 0 | 0.00 | 0.00 | 0.00 | 0.00 |
| 05/07/26 1:04:24 AM | 36 | 0.0 | 0.0 | 53 | 78 | 69.4 | 57.6 | 30.054 | 7.26 | 0.0 | 0 | 0.00 | 0.00 | 0.00 | 0.00 |
| 05/07/26 1:05:16 AM | 37 | 0.0 | 0.0 | 53 | 78 | 69.3 | 57.6 | 30.056 | 7.26 | 0.0 | 0 | 0.00 | 0.00 | 0.00 | 0.00 |
| 05/07/26 1:06:29 AM | 34 | 0.0 | 0.0 | 53 | 78 | 69.3 | 57.5 | 30.055 | 7.26 | 0.0 | 0 | 0.00 | 0.00 | 0.00 | 0.00 |
| 05/07/26 1:07:18 AM | 32 | 0.0 | 0.0 | 53 | 78 | 69.3 | 57.5 | 30.054 | 7.26 | 0.0 | 0 | 0.00 | 0.00 | 0.00 | 0.00 |
| 05/07/26 1:08:31 AM | 36 | 0.0 | 0.0 | 53 | 78 | 69.3 | 57.5 | 30.056 | 7.26 | 0.0 | 0 | 0.00 | 0.00 | 0.00 | 0.00 |
| 05/07/26 1:09:22 AM | 34 | 0.0 | 0.0 | 53 | 78 | 69.3 | 57.5 | 30.054 | 7.26 | 0.0 | 0 | 0.00 | 0.00 | 0.00 | 0.00 |
| 05/07/26 1:10:32 AM | 34 | 0.0 | 0.0 | 53 | 78 | 69.3 | 57.4 | 30.055 | 7.26 | 0.0 | 0 | 0.00 | 0.00 | 0.00 | 0.00 |
| 05/07/26 1:11:24 AM | 35 | 0.0 | 0.0 | 53 | 78 | 69.3 | 57.4 | 30.055 | 7.26 | 0.0 | 0 | 0.00 | 0.00 | 0.00 | 0.00 |
| 05/07/26 1:12:19 AM | 37 | 0.0 | 0.0 | 53 | 78 | 69.3 | 57.4 | 30.055 | 7.26 | 0.0 | 0 | 0.00 | 0.00 | 0.00 | 0.00 |
| 05/07/26 1:13:26 AM | 38 | 0.0 | 0.0 | 53 | 78 | 69.3 | 57.3 | 30.055 | 7.26 | 0.0 | 0 | 0.00 | 0.00 | 0.00 | 0.00 |
| 05/07/26 1:14:18 AM | 36 | 0.0 | 0.0 | 53 | 78 | 69.3 | 57.3 | 30.055 | 7.26 | 0.0 | 0 | 0.00 | 0.00 | 0.00 | 0.00 |
| 05/07/26 1:15:30 AM | 34 | 0.0 | 0.0 | 53 | 78 | 69.2 | 57.3 | 30.055 | 7.26 | 0.0 | 0 | 0.00 | 0.00 | 0.00 | 0.00 |
| 05/07/26 1:16:22 AM | 36 | 0.0 | 0.0 | 53 | 78 | 69.3 | 57.3 | 30.056 | 7.26 | 0.0 | 0 | 0.00 | 0.00 | 0.00 | 0.00 |
| 05/07/26 1:17:35 AM | 38 | 0.0 | 0.0 | 53 | 78 | 69.3 | 57.3 | 30.055 | 7.26 | 0.0 | 0 | 0.00 | 0.00 | 0.00 | 0.00 |
| 05/07/26 1:18:21 AM | 34 | 0.0 | 0.0 | 53 | 78 | 69.3 | 57.2 | 30.056 | 7.26 | 0.0 | 0 | 0.00 | 0.00 | 0.00 | 0.00 |
| 05/07/26 1:19:34 AM | 31 | 0.0 | 0.0 | 53 | 78 | 69.2 | 57.2 | 30.055 | 7.26 | 0.0 | 0 | 0.00 | 0.00 | 0.00 | 0.00 |
| 05/07/26 1:20:29 AM | 36 | 0.0 | 0.0 | 53 | 78 | 69.2 | 57.2 | 30.055 | 7.26 | 0.0 | 0 | 0.00 | 0.00 | 0.00 | 0.00 |
| 05/07/26 1:21:20 AM | 37 | 0.0 | 0.0 | 53 | 78 | 69.3 | 57.2 | 30.054 | 7.26 | 0.0 | 0 | 0.00 | 0.00 | 0.00 | 0.00 |
| 05/07/26 1:22:33 AM | 32 | 0.0 | 0.0 | 53 | 78 | 69.3 | 57.1 | 30.055 | 7.26 | 0.0 | 0 | 0.00 | 0.00 | 0.00 | 0.00 |
| 05/07/26 1:23:19 AM | 38 | 0.0 | 0.0 | 53 | 78 | 69.2 | 57.1 | 30.055 | 7.26 | 0.0 | 0 | 0.00 | 0.00 | 0.00 | 0.00 |
| 05/07/26 1:24:32 AM | 38 | 0.0 | 0.0 | 53 | 78 | 69.3 | 57.1 | 30.056 | 7.26 | 0.0 | 0 | 0.00 | 0.00 | 0.00 | 0.00 |
| 05/07/26 1:25:27 AM | 37 | 0.0 | 0.0 | 53 | 78 | 69.2 | 57.0 | 30.055 | 7.26 | 0.0 | 0 | 0.00 | 0.00 | 0.00 | 0.00 |
| 05/07/26 1:26:19 AM | 36 | 0.0 | 0.0 | 53 | 79 | 69.3 | 57.0 | 30.054 | 7.26 | 0.0 | 0 | 0.00 | 0.00 | 0.00 | 0.00 |
| 05/07/26 1:27:35 AM | 34 | 0.0 | 0.0 | 53 | 79 | 69.3 | 57.0 | 30.053 | 7.26 | 0.0 | 0 | 0.00 | 0.00 | 0.00 | 0.00 |
| 05/07/26 1:28:26 AM | 38 | 0.0 | 0.0 | 53 | 79 | 69.2 | 56.9 | 30.053 | 7.26 | 0.0 | 0 | 0.00 | 0.00 | 0.00 | 0.00 |
| 05/07/26 1:29:33 AM | 36 | 0.0 | 0.0 | 53 | 79 | 69.2 | 56.9 | 30.054 | 7.26 | 0.0 | 0 | 0.00 | 0.00 | 0.00 | 0.00 |
| 05/07/26 1:30:28 AM | 36 | 0.0 | 0.0 | 53 | 79 | 69.2 | 56.9 | 30.054 | 7.26 | 0.0 | 0 | 0.00 | 0.00 | 0.00 | 0.00 |
| 05/07/26 1:31:17 AM | 37 | 0.0 | 0.0 | 53 | 79 | 69.3 | 56.9 | 30.051 | 7.26 | 0.0 | 0 | 0.00 | 0.00 | 0.00 | 0.00 |
| 05/07/26 1:32:30 AM | 37 | 0.0 | 0.0 | 53 | 79 | 69.2 | 56.8 | 30.052 | 7.26 | 0.0 | 0 | 0.00 | 0.00 | 0.00 | 0.00 |
| 05/07/26 1:33:22 AM | 38 | 0.0 | 0.0 | 53 | 79 | 69.2 | 56.8 | 30.054 | 7.26 | 0.0 | 0 | 0.00 | 0.00 | 0.00 | 0.00 |
| 05/07/26 1:34:31 AM | 32 | 0.0 | 0.0 | 53 | 79 | 69.3 | 56.8 | 30.052 | 7.26 | 0.0 | 0 | 0.00 | 0.00 | 0.00 | 0.00 |
| 05/07/26 1:35:23 AM | 38 | 0.0 | 0.0 | 53 | 79 | 69.2 | 56.7 | 30.054 | 7.26 | 0.0 | 0 | 0.00 | 0.00 | 0.00 | 0.00 |
| 05/07/26 1:36:33 AM | 35 | 0.0 | 0.0 | 53 | 79 | 69.2 | 56.7 | 30.054 | 7.26 | 0.0 | 0 | 0.00 | 0.00 | 0.00 | 0.00 |
| 05/07/26 1:37:25 AM | 29 | 0.0 | 0.0 | 53 | 79 | 69.2 | 56.7 | 30.054 | 7.26 | 0.0 | 0 | 0.00 | 0.00 | 0.00 | 0.00 |
| 05/07/26 1:38:17 AM | 36 | 0.0 | 0.0 | 53 | 79 | 69.2 | 56.6 | 30.054 | 7.26 | 0.0 | 0 | 0.00 | 0.00 | 0.00 | 0.00 |
| 05/07/26 1:39:24 AM | 34 | 0.0 | 0.0 | 53 | 79 | 69.2 | 56.6 | 30.052 | 7.26 | 0.0 | 0 | 0.00 | 0.00 | 0.00 | 0.00 |
| 05/07/26 1:40:15 AM | 34 | 0.0 | 0.0 | 53 | 79 | 69.2 | 56.6 | 30.053 | 7.26 | 0.0 | 0 | 0.00 | 0.00 | 0.00 | 0.00 |
| 05/07/26 1:41:28 AM | 38 | 0.0 | 0.0 | 53 | 80 | 69.2 | 56.6 | 30.053 | 7.26 | 0.0 | 0 | 0.00 | 0.00 | 0.00 | 0.00 |
| 05/07/26 1:42:20 AM | 34 | 0.0 | 0.0 | 53 | 80 | 69.2 | 56.6 | 30.054 | 7.26 | 0.0 | 0 | 0.00 | 0.00 | 0.00 | 0.00 |
| 05/07/26 1:43:30 AM | 36 | 0.0 | 0.0 | 53 | 80 | 69.2 | 56.5 | 30.052 | 7.26 | 0.0 | 0 | 0.00 | 0.00 | 0.00 | 0.00 |
| 05/07/26 1:44:25 AM | 32 | 0.0 | 0.0 | 53 | 80 | 69.2 | 56.5 | 30.052 | 7.26 | 0.0 | 0 | 0.00 | 0.00 | 0.00 | 0.00 |
| 05/07/26 1:45:32 AM | 36 | 0.0 | 0.0 | 53 | 80 | 69.2 | 56.5 | 30.054 | 7.26 | 0.0 | 0 | 0.00 | 0.00 | 0.00 | 0.00 |
| 05/07/26 1:46:23 AM | 34 | 0.0 | 0.0 | 53 | 80 | 69.1 | 56.5 | 30.053 | 7.26 | 0.0 | 0 | 0.00 | 0.00 | 0.00 | 0.00 |
| 05/07/26 1:47:36 AM | 34 | 0.0 | 0.0 | 53 | 80 | 69.2 | 56.5 | 30.053 | 7.26 | 0.0 | 0 | 0.00 | 0.00 | 0.00 | 0.00 |
| 05/07/26 1:48:25 AM | 38 | 0.0 | 0.0 | 53 | 80 | 69.1 | 56.4 | 30.052 | 7.26 | 0.0 | 0 | 0.00 | 0.00 | 0.00 | 0.00 |
| 05/07/26 1:49:17 AM | 37 | 0.0 | 0.0 | 53 | 80 | 69.1 | 56.4 | 30.051 | 7.26 | 0.0 | 0 | 0.00 | 0.00 | 0.00 | 0.00 |
| 05/07/26 1:50:27 AM | 37 | 0.0 | 0.0 | 53 | 80 | 69.1 | 56.4 | 30.053 | 7.26 | 0.0 | 0 | 0.00 | 0.00 | 0.00 | 0.00 |
| 05/07/26 1:51:19 AM | 34 | 0.0 | 0.0 | 53 | 80 | 69.2 | 56.4 | 30.050 | 7.26 | 0.0 | 0 | 0.00 | 0.00 | 0.00 | 0.00 |
| 05/07/26 1:52:28 AM | 32 | 0.0 | 0.0 | 53 | 80 | 69.2 | 56.4 | 30.052 | 7.26 | 0.0 | 0 | 0.00 | 0.00 | 0.00 | 0.00 |
| 05/07/26 1:53:23 AM | 38 | 0.0 | 0.0 | 53 | 80 | 69.2 | 56.4 | 30.051 | 7.26 | 0.0 | 0 | 0.00 | 0.00 | 0.00 | 0.00 |
| 05/07/26 1:54:33 AM | 38 | 0.0 | 0.0 | 53 | 80 | 69.2 | 56.3 | 30.053 | 7.26 | 0.0 | 0 | 0.00 | 0.00 | 0.00 | 0.00 |
| 05/07/26 1:55:22 AM | 30 | 0.0 | 0.0 | 53 | 80 | 69.2 | 56.3 | 30.052 | 7.26 | 0.0 | 0 | 0.00 | 0.00 | 0.00 | 0.00 |
| 05/07/26 1:56:32 AM | 30 | 0.0 | 0.0 | 53 | 80 | 69.1 | 56.2 | 30.050 | 7.26 | 0.0 | 0 | 0.00 | 0.00 | 0.00 | 0.00 |
| 05/07/26 1:57:27 AM | 37 | 0.0 | 0.0 | 53 | 80 | 69.1 | 56.2 | 30.051 | 7.26 | 0.0 | 0 | 0.00 | 0.00 | 0.00 | 0.00 |
| 05/07/26 1:58:18 AM | 38 | 0.0 | 0.0 | 53 | 80 | 69.1 | 56.2 | 30.049 | 7.26 | 0.0 | 0 | 0.00 | 0.00 | 0.00 | 0.00 |
| 05/07/26 1:59:31 AM | 34 | 0.0 | 0.0 | 53 | 80 | 69.2 | 56.2 | 30.050 | 7.26 | 0.0 | 0 | 0.00 | 0.00 | 0.00 | 0.00 |
| 05/07/26 2:00:47 AM | 36 | 0.0 | 0.0 | 53 | 80 | 69.1 | 56.1 | 30.051 | 7.26 | 0.0 | 0 | 0.00 | 0.00 | 0.00 | 0.00 |
| 05/07/26 2:01:33 AM | 38 | 0.0 | 0.0 | 53 | 80 | 69.1 | 56.2 | 30.049 | 7.26 | 0.0 | 0 | 0.00 | 0.00 | 0.00 | 0.00 |
| 05/07/26 2:02:25 AM | 38 | 0.0 | 0.0 | 53 | 80 | 69.1 | 56.2 | 30.046 | 7.26 | 0.0 | 0 | 0.00 | 0.00 | 0.00 | 0.00 |
| 05/07/26 2:03:17 AM | 35 | 0.0 | 0.0 | 53 | 81 | 69.1 | 56.1 | 30.048 | 7.26 | 0.0 | 0 | 0.00 | 0.00 | 0.00 | 0.00 |
| 05/07/26 2:04:29 AM | 37 | 0.0 | 0.0 | 53 | 81 | 69.1 | 56.1 | 30.044 | 7.26 | 0.0 | 0 | 0.00 | 0.00 | 0.00 | 0.00 |
| 05/07/26 2:05:21 AM | 38 | 0.0 | 0.0 | 53 | 81 | 69.1 | 56.1 | 30.047 | 7.26 | 0.0 | 0 | 0.00 | 0.00 | 0.00 | 0.00 |
| 05/07/26 2:06:28 AM | 38 | 0.0 | 0.0 | 53 | 81 | 69.1 | 56.2 | 30.047 | 7.26 | 0.0 | 0 | 0.00 | 0.00 | 0.00 | 0.00 |
| 05/07/26 2:07:20 AM | 38 | 0.0 | 0.0 | 53 | 81 | 69.1 | 56.1 | 30.047 | 7.26 | 0.0 | 0 | 0.00 | 0.00 | 0.00 | 0.00 |
| 05/07/26 2:08:33 AM | 37 | 0.0 | 0.0 | 53 | 81 | 69.1 | 56.1 | 30.045 | 7.26 | 0.0 | 0 | 0.00 | 0.00 | 0.00 | 0.00 |
| 05/07/26 2:09:25 AM | 32 | 0.0 | 0.0 | 53 | 81 | 69.1 | 56.1 | 30.044 | 7.26 | 0.0 | 0 | 0.00 | 0.00 | 0.00 | 0.00 |
| 05/07/26 2:10:19 AM | 34 | 0.0 | 0.0 | 53 | 81 | 69.1 | 56.1 | 30.046 | 7.26 | 0.0 | 0 | 0.00 | 0.00 | 0.00 | 0.00 |
| 05/07/26 2:11:29 AM | 38 | 0.0 | 0.0 | 53 | 81 | 69.0 | 56.1 | 30.044 | 7.26 | 0.0 | 0 | 0.00 | 0.00 | 0.00 | 0.00 |
| 05/07/26 2:12:18 AM | 36 | 0.0 | 0.0 | 53 | 81 | 69.1 | 56.1 | 30.044 | 7.26 | 0.0 | 0 | 0.00 | 0.00 | 0.00 | 0.00 |
| 05/07/26 2:13:28 AM | 37 | 0.0 | 0.0 | 53 | 81 | 69.1 | 56.1 | 30.044 | 7.26 | 0.0 | 0 | 0.00 | 0.00 | 0.00 | 0.00 |
| 05/07/26 2:14:20 AM | 38 | 0.0 | 0.0 | 53 | 81 | 69.0 | 56.1 | 30.042 | 7.26 | 0.0 | 0 | 0.00 | 0.00 | 0.00 | 0.00 |
| 05/07/26 2:15:33 AM | 38 | 0.0 | 0.0 | 53 | 81 | 69.0 | 56.1 | 30.043 | 7.26 | 0.0 | 0 | 0.00 | 0.00 | 0.00 | 0.00 |
| 05/07/26 2:16:24 AM | 34 | 0.0 | 0.0 | 53 | 81 | 69.1 | 56.1 | 30.042 | 7.26 | 0.0 | 0 | 0.00 | 0.00 | 0.00 | 0.00 |
| 05/07/26 2:17:31 AM | 36 | 0.0 | 0.0 | 53 | 81 | 69.1 | 56.1 | 30.043 | 7.26 | 0.0 | 0 | 0.00 | 0.00 | 0.00 | 0.00 |
| 05/07/26 2:18:26 AM | 38 | 0.0 | 0.0 | 53 | 81 | 69.0 | 56.1 | 30.044 | 7.26 | 0.0 | 0 | 0.00 | 0.00 | 0.00 | 0.00 |
| 05/07/26 2:19:18 AM | 31 | 0.0 | 0.0 | 53 | 81 | 69.0 | 56.1 | 30.044 | 7.26 | 0.0 | 0 | 0.00 | 0.00 | 0.00 | 0.00 |
| 05/07/26 2:20:28 AM | 36 | 0.0 | 0.0 | 53 | 81 | 69.0 | 56.1 | 30.042 | 7.26 | 0.0 | 0 | 0.00 | 0.00 | 0.00 | 0.00 |
| 05/07/26 2:21:20 AM | 38 | 0.0 | 0.0 | 53 | 81 | 69.1 | 56.0 | 30.044 | 7.26 | 0.0 | 0 | 0.00 | 0.00 | 0.00 | 0.00 |
| 05/07/26 2:22:30 AM | 34 | 0.0 | 0.0 | 53 | 81 | 69.0 | 56.0 | 30.045 | 7.26 | 0.0 | 0 | 0.00 | 0.00 | 0.00 | 0.00 |
| 05/07/26 2:23:21 AM | 38 | 0.0 | 0.0 | 53 | 81 | 69.0 | 56.0 | 30.044 | 7.26 | 0.0 | 0 | 0.00 | 0.00 | 0.00 | 0.00 |
| 05/07/26 2:24:31 AM | 38 | 0.0 | 0.0 | 53 | 81 | 69.1 | 56.0 | 30.042 | 7.26 | 0.0 | 0 | 0.00 | 0.00 | 0.00 | 0.00 |
| 05/07/26 2:25:26 AM | 37 | 0.0 | 0.0 | 53 | 81 | 69.0 | 56.0 | 30.041 | 7.26 | 0.0 | 0 | 0.00 | 0.00 | 0.00 | 0.00 |
| 05/07/26 2:26:18 AM | 38 | 0.0 | 0.0 | 53 | 81 | 69.0 | 55.9 | 30.040 | 7.26 | 0.0 | 0 | 0.00 | 0.00 | 0.00 | 0.00 |
| 05/07/26 2:27:28 AM | 38 | 0.0 | 0.0 | 53 | 81 | 69.0 | 55.8 | 30.041 | 7.26 | 0.0 | 0 | 0.00 | 0.00 | 0.00 | 0.00 |
| 05/07/26 2:28:17 AM | 37 | 0.0 | 0.0 | 53 | 81 | 69.0 | 55.8 | 30.038 | 7.26 | 0.0 | 0 | 0.00 | 0.00 | 0.00 | 0.00 |
| 05/07/26 2:29:29 AM | 36 | 0.0 | 0.0 | 53 | 81 | 69.0 | 55.8 | 30.039 | 7.26 | 0.0 | 0 | 0.00 | 0.00 | 0.00 | 0.00 |
| 05/07/26 2:30:21 AM | 36 | 0.0 | 0.0 | 53 | 81 | 69.0 | 55.8 | 30.039 | 7.26 | 0.0 | 0 | 0.00 | 0.00 | 0.00 | 0.00 |
| 05/07/26 2:31:34 AM | 31 | 0.0 | 0.0 | 53 | 81 | 69.0 | 55.7 | 30.040 | 7.26 | 0.0 | 0 | 0.00 | 0.00 | 0.00 | 0.00 |
| 05/07/26 2:32:26 AM | 36 | 0.0 | 0.0 | 53 | 81 | 69.0 | 55.7 | 30.038 | 7.26 | 0.0 | 0 | 0.00 | 0.00 | 0.00 | 0.00 |
| 05/07/26 2:33:39 AM | 30 | 0.0 | 0.0 | 53 | 81 | 69.0 | 55.7 | 30.039 | 7.26 | 0.0 | 0 | 0.00 | 0.00 | 0.00 | 0.00 |
| 05/07/26 2:34:31 AM | 37 | 0.0 | 0.0 | 53 | 81 | 68.9 | 55.7 | 30.038 | 7.26 | 0.0 | 0 | 0.00 | 0.00 | 0.00 | 0.00 |
| 05/07/26 2:35:23 AM | 36 | 0.0 | 0.0 | 53 | 81 | 68.9 | 55.7 | 30.038 | 7.26 | 0.0 | 0 | 0.00 | 0.00 | 0.00 | 0.00 |
| 05/07/26 2:36:36 AM | 34 | 0.0 | 0.0 | 53 | 82 | 68.9 | 55.6 | 30.034 | 7.26 | 0.0 | 0 | 0.00 | 0.00 | 0.00 | 0.00 |
| 05/07/26 2:37:25 AM | 38 | 0.0 | 0.0 | 53 | 82 | 68.9 | 55.6 | 30.037 | 7.26 | 0.0 | 0 | 0.00 | 0.00 | 0.00 | 0.00 |
| 05/07/26 2:38:19 AM | 37 | 0.0 | 0.0 | 53 | 82 | 68.9 | 55.6 | 30.038 | 7.26 | 0.0 | 0 | 0.00 | 0.00 | 0.00 | 0.00 |
| 05/07/26 2:39:26 AM | 38 | 0.0 | 0.0 | 53 | 82 | 68.9 | 55.6 | 30.036 | 7.26 | 0.0 | 0 | 0.00 | 0.00 | 0.00 | 0.00 |
| 05/07/26 2:40:18 AM | 38 | 0.0 | 0.0 | 53 | 82 | 69.0 | 55.6 | 30.034 | 7.26 | 0.0 | 0 | 0.00 | 0.00 | 0.00 | 0.00 |
| 05/07/26 2:41:31 AM | 36 | 0.0 | 0.0 | 53 | 82 | 68.9 | 55.5 | 30.034 | 7.26 | 0.0 | 0 | 0.00 | 0.00 | 0.00 | 0.00 |
| 05/07/26 2:42:23 AM | 38 | 0.0 | 0.0 | 53 | 82 | 68.9 | 55.5 | 30.036 | 7.26 | 0.0 | 0 | 0.00 | 0.00 | 0.00 | 0.00 |
| 05/07/26 2:43:36 AM | 38 | 0.0 | 0.0 | 53 | 82 | 68.9 | 55.5 | 30.034 | 7.26 | 0.0 | 0 | 0.00 | 0.00 | 0.00 | 0.00 |
| 05/07/26 2:44:22 AM | 36 | 0.0 | 0.0 | 53 | 82 | 68.9 | 55.5 | 30.034 | 7.26 | 0.0 | 0 | 0.00 | 0.00 | 0.00 | 0.00 |
| 05/07/26 2:45:34 AM | 30 | 0.0 | 0.0 | 53 | 82 | 68.9 | 55.5 | 30.037 | 7.26 | 0.0 | 0 | 0.00 | 0.00 | 0.00 | 0.00 |
| 05/07/26 2:46:26 AM | 37 | 0.0 | 0.0 | 53 | 82 | 68.9 | 55.4 | 30.035 | 7.26 | 0.0 | 0 | 0.00 | 0.00 | 0.00 | 0.00 |
| 05/07/26 2:47:18 AM | 38 | 0.0 | 0.0 | 53 | 82 | 68.9 | 55.4 | 30.037 | 7.26 | 0.0 | 0 | 0.00 | 0.00 | 0.00 | 0.00 |
| 05/07/26 2:48:31 AM | 38 | 0.0 | 0.0 | 53 | 82 | 68.9 | 55.4 | 30.037 | 7.26 | 0.0 | 0 | 0.00 | 0.00 | 0.00 | 0.00 |
| 05/07/26 2:49:17 AM | 34 | 0.0 | 0.0 | 53 | 82 | 68.9 | 55.4 | 30.037 | 7.26 | 0.0 | 0 | 0.00 | 0.00 | 0.00 | 0.00 |
| 05/07/26 2:50:30 AM | 36 | 0.0 | 0.0 | 53 | 82 | 68.9 | 55.4 | 30.035 | 7.26 | 0.0 | 0 | 0.00 | 0.00 | 0.00 | 0.00 |
| 05/07/26 2:51:22 AM | 38 | 0.0 | 0.0 | 53 | 82 | 68.9 | 55.3 | 30.033 | 7.26 | 0.0 | 0 | 0.00 | 0.00 | 0.00 | 0.00 |
| 05/07/26 2:52:35 AM | 38 | 0.0 | 0.0 | 53 | 82 | 68.9 | 55.3 | 30.036 | 7.26 | 0.0 | 0 | 0.00 | 0.00 | 0.00 | 0.00 |
| 05/07/26 2:53:26 AM | 36 | 0.0 | 0.0 | 53 | 82 | 68.9 | 55.3 | 30.035 | 7.26 | 0.0 | 0 | 0.00 | 0.00 | 0.00 | 0.00 |
| 05/07/26 2:54:18 AM | 40 | 0.0 | 0.0 | 53 | 82 | 68.9 | 55.3 | 30.032 | 7.26 | 0.0 | 0 | 0.00 | 0.00 | 0.00 | 0.00 |
| 05/07/26 2:55:25 AM | 38 | 0.0 | 0.0 | 53 | 82 | 68.9 | 55.2 | 30.034 | 7.26 | 0.0 | 0 | 0.00 | 0.00 | 0.00 | 0.00 |
| 05/07/26 2:56:20 AM | 38 | 0.0 | 0.0 | 53 | 82 | 68.9 | 55.2 | 30.033 | 7.26 | 0.0 | 0 | 0.00 | 0.00 | 0.00 | 0.00 |
| 05/07/26 2:57:33 AM | 30 | 0.0 | 0.0 | 53 | 82 | 68.9 | 55.1 | 30.034 | 7.26 | 0.0 | 0 | 0.00 | 0.00 | 0.00 | 0.00 |
| 05/07/26 2:58:25 AM | 35 | 0.0 | 0.0 | 53 | 82 | 68.9 | 55.1 | 30.036 | 7.26 | 0.0 | 0 | 0.00 | 0.00 | 0.00 | 0.00 |
| 05/07/26 2:59:35 AM | 37 | 0.0 | 0.0 | 53 | 82 | 68.9 | 55.1 | 30.034 | 7.26 | 0.0 | 0 | 0.00 | 0.00 | 0.00 | 0.00 |
| 05/07/26 3:00:45 AM | 37 | 0.0 | 0.0 | 53 | 82 | 68.8 | 55.1 | 30.033 | 7.26 | 0.0 | 0 | 0.00 | 0.00 | 0.00 | 0.00 |
| 05/07/26 3:01:19 AM | 36 | 0.0 | 0.0 | 53 | 82 | 68.8 | 55.1 | 30.033 | 7.26 | 0.0 | 0 | 0.00 | 0.00 | 0.00 | 0.00 |
| 05/07/26 3:02:28 AM | 36 | 0.0 | 0.0 | 53 | 82 | 68.8 | 55.1 | 30.035 | 7.26 | 0.0 | 0 | 0.00 | 0.00 | 0.00 | 0.00 |
| 05/07/26 3:03:23 AM | 38 | 0.0 | 0.0 | 53 | 82 | 68.9 | 55.0 | 30.035 | 7.26 | 0.0 | 0 | 0.00 | 0.00 | 0.00 | 0.00 |
| 05/07/26 3:04:36 AM | 38 | 0.0 | 0.0 | 53 | 82 | 68.8 | 55.1 | 30.034 | 7.26 | 0.0 | 0 | 0.00 | 0.00 | 0.00 | 0.00 |
| 05/07/26 3:05:28 AM | 35 | 0.0 | 0.0 | 53 | 82 | 68.8 | 55.0 | 30.034 | 7.26 | 0.0 | 0 | 0.00 | 0.00 | 0.00 | 0.00 |
| 05/07/26 3:06:35 AM | 38 | 0.0 | 0.0 | 53 | 83 | 68.8 | 55.0 | 30.037 | 7.26 | 0.0 | 0 | 0.00 | 0.00 | 0.00 | 0.00 |
| 05/07/26 3:07:27 AM | 34 | 0.0 | 0.0 | 53 | 83 | 68.8 | 55.0 | 30.034 | 7.26 | 0.0 | 0 | 0.00 | 0.00 | 0.00 | 0.00 |
| 05/07/26 3:08:19 AM | 36 | 0.0 | 0.0 | 53 | 83 | 68.8 | 55.0 | 30.032 | 7.26 | 0.0 | 0 | 0.00 | 0.00 | 0.00 | 0.00 |
| 05/07/26 3:09:32 AM | 38 | 0.0 | 0.0 | 53 | 83 | 68.8 | 55.0 | 30.033 | 7.26 | 0.0 | 0 | 0.00 | 0.00 | 0.00 | 0.00 |
| 05/07/26 3:10:24 AM | 37 | 0.0 | 0.0 | 53 | 83 | 68.8 | 55.0 | 30.034 | 7.26 | 0.0 | 0 | 0.00 | 0.00 | 0.00 | 0.00 |
| 05/07/26 3:11:30 AM | 36 | 0.0 | 0.0 | 53 | 83 | 68.8 | 55.0 | 30.034 | 7.26 | 0.0 | 0 | 0.00 | 0.00 | 0.00 | 0.00 |
| 05/07/26 3:12:22 AM | 37 | 0.0 | 0.0 | 53 | 83 | 68.8 | 55.0 | 30.034 | 7.26 | 0.0 | 0 | 0.00 | 0.00 | 0.00 | 0.00 |
| 05/07/26 3:13:32 AM | 37 | 0.0 | 0.0 | 53 | 83 | 68.8 | 55.0 | 30.035 | 7.26 | 0.0 | 0 | 0.00 | 0.00 | 0.00 | 0.00 |
| 05/07/26 3:14:27 AM | 36 | 0.0 | 0.0 | 53 | 83 | 68.8 | 55.0 | 30.032 | 7.26 | 0.0 | 0 | 0.00 | 0.00 | 0.00 | 0.00 |
| 05/07/26 3:15:19 AM | 38 | 0.0 | 0.0 | 53 | 83 | 68.8 | 55.0 | 30.033 | 7.26 | 0.0 | 0 | 0.00 | 0.00 | 0.00 | 0.00 |
| 05/07/26 3:16:26 AM | 38 | 0.0 | 0.0 | 53 | 83 | 68.8 | 55.0 | 30.033 | 7.26 | 0.0 | 0 | 0.00 | 0.00 | 0.00 | 0.00 |
| 05/07/26 3:17:21 AM | 35 | 0.0 | 0.0 | 53 | 83 | 68.8 | 55.0 | 30.033 | 7.26 | 0.0 | 0 | 0.00 | 0.00 | 0.00 | 0.00 |
| 05/07/26 3:18:31 AM | 38 | 0.0 | 0.0 | 53 | 83 | 68.8 | 55.0 | 30.031 | 7.26 | 0.0 | 0 | 0.00 | 0.00 | 0.00 | 0.00 |
| 05/07/26 3:19:26 AM | 32 | 0.0 | 0.0 | 53 | 83 | 68.8 | 55.0 | 30.032 | 7.26 | 0.0 | 0 | 0.00 | 0.00 | 0.00 | 0.00 |
| 05/07/26 3:20:18 AM | 35 | 0.0 | 0.0 | 53 | 83 | 68.8 | 55.0 | 30.032 | 7.26 | 0.0 | 0 | 0.00 | 0.00 | 0.00 | 0.00 |
| 05/07/26 3:21:31 AM | 38 | 0.0 | 0.0 | 53 | 83 | 68.8 | 55.0 | 30.033 | 7.26 | 0.0 | 0 | 0.00 | 0.00 | 0.00 | 0.00 |
| 05/07/26 3:22:19 AM | 36 | 0.0 | 0.0 | 53 | 83 | 68.8 | 55.0 | 30.033 | 7.26 | 0.0 | 0 | 0.00 | 0.00 | 0.00 | 0.00 |
| 05/07/26 3:23:29 AM | 37 | 0.0 | 0.0 | 53 | 83 | 68.8 | 54.9 | 30.031 | 7.26 | 0.0 | 0 | 0.00 | 0.00 | 0.00 | 0.00 |
| 05/07/26 3:24:21 AM | 35 | 0.0 | 0.0 | 53 | 83 | 68.8 | 55.0 | 30.031 | 7.26 | 0.0 | 0 | 0.00 | 0.00 | 0.00 | 0.00 |
| 05/07/26 3:25:34 AM | 38 | 0.0 | 0.0 | 53 | 83 | 68.8 | 54.9 | 30.031 | 7.26 | 0.0 | 0 | 0.00 | 0.00 | 0.00 | 0.00 |
| 05/07/26 3:26:26 AM | 35 | 0.0 | 0.0 | 53 | 83 | 68.8 | 54.9 | 30.033 | 7.26 | 0.0 | 0 | 0.00 | 0.00 | 0.00 | 0.00 |
| 05/07/26 3:27:33 AM | 36 | 0.0 | 0.0 | 53 | 83 | 68.8 | 54.9 | 30.032 | 7.26 | 0.0 | 0 | 0.00 | 0.00 | 0.00 | 0.00 |
| 05/07/26 3:28:25 AM | 34 | 0.0 | 0.0 | 53 | 83 | 68.8 | 54.9 | 30.033 | 7.26 | 0.0 | 0 | 0.00 | 0.00 | 0.00 | 0.00 |
| 05/07/26 3:29:17 AM | 36 | 0.0 | 0.0 | 53 | 83 | 68.8 | 54.8 | 30.031 | 7.26 | 0.0 | 0 | 0.00 | 0.00 | 0.00 | 0.00 |
| 05/07/26 3:30:33 AM | 38 | 0.0 | 0.0 | 53 | 83 | 68.8 | 54.8 | 30.031 | 7.26 | 0.0 | 0 | 0.00 | 0.00 | 0.00 | 0.00 |
| 05/07/26 3:31:22 AM | 32 | 0.0 | 0.0 | 53 | 83 | 68.8 | 54.8 | 30.032 | 7.26 | 0.0 | 0 | 0.00 | 0.00 | 0.00 | 0.00 |
| 05/07/26 3:32:29 AM | 37 | 0.0 | 0.0 | 53 | 83 | 68.7 | 54.8 | 30.032 | 7.26 | 0.0 | 0 | 0.00 | 0.00 | 0.00 | 0.00 |
| 05/07/26 3:33:21 AM | 36 | 0.0 | 0.0 | 53 | 83 | 68.7 | 54.7 | 30.033 | 7.26 | 0.0 | 0 | 0.00 | 0.00 | 0.00 | 0.00 |
| 05/07/26 3:34:33 AM | 32 | 0.0 | 0.0 | 53 | 83 | 68.7 | 54.7 | 30.031 | 7.26 | 0.0 | 0 | 0.00 | 0.00 | 0.00 | 0.00 |
| 05/07/26 3:35:25 AM | 36 | 0.0 | 0.0 | 53 | 83 | 68.7 | 54.7 | 30.032 | 7.26 | 0.0 | 0 | 0.00 | 0.00 | 0.00 | 0.00 |
| 05/07/26 3:36:17 AM | 35 | 0.0 | 0.0 | 53 | 83 | 68.7 | 54.7 | 30.032 | 7.26 | 0.0 | 0 | 0.00 | 0.00 | 0.00 | 0.00 |
| 05/07/26 3:37:30 AM | 38 | 0.0 | 0.0 | 53 | 83 | 68.7 | 54.6 | 30.031 | 7.26 | 0.0 | 0 | 0.00 | 0.00 | 0.00 | 0.00 |
| 05/07/26 3:38:16 AM | 36 | 0.0 | 0.0 | 53 | 83 | 68.7 | 54.6 | 30.029 | 7.26 | 0.0 | 0 | 0.00 | 0.00 | 0.00 | 0.00 |
| 05/07/26 3:39:29 AM | 35 | 0.0 | 0.0 | 53 | 84 | 68.7 | 54.6 | 30.031 | 7.26 | 0.0 | 0 | 0.00 | 0.00 | 0.00 | 0.00 |
| 05/07/26 3:40:21 AM | 32 | 0.0 | 0.0 | 53 | 84 | 68.7 | 54.6 | 30.031 | 7.26 | 0.0 | 0 | 0.00 | 0.00 | 0.00 | 0.00 |
| 05/07/26 3:41:34 AM | 32 | 0.0 | 0.0 | 53 | 84 | 68.6 | 54.6 | 30.031 | 7.26 | 0.0 | 0 | 0.00 | 0.00 | 0.00 | 0.00 |
| 05/07/26 3:42:26 AM | 38 | 0.0 | 0.0 | 53 | 84 | 68.6 | 54.6 | 30.031 | 7.26 | 0.0 | 0 | 0.00 | 0.00 | 0.00 | 0.00 |
| 05/07/26 3:43:36 AM | 34 | 0.0 | 0.0 | 53 | 84 | 68.7 | 54.6 | 30.028 | 7.26 | 0.0 | 0 | 0.00 | 0.00 | 0.00 | 0.00 |
| 05/07/26 3:44:27 AM | 38 | 0.0 | 0.0 | 53 | 84 | 68.7 | 54.6 | 30.027 | 7.26 | 0.0 | 0 | 0.00 | 0.00 | 0.00 | 0.00 |
| 05/07/26 3:45:19 AM | 31 | 0.0 | 0.0 | 53 | 84 | 68.6 | 54.7 | 30.028 | 7.26 | 0.0 | 0 | 0.00 | 0.00 | 0.00 | 0.00 |
| 05/07/26 3:46:29 AM | 38 | 0.0 | 0.0 | 53 | 84 | 68.6 | 54.6 | 30.026 | 7.26 | 0.0 | 0 | 0.00 | 0.00 | 0.00 | 0.00 |
| 05/07/26 3:47:21 AM | 38 | 0.0 | 0.0 | 53 | 84 | 68.7 | 54.6 | 30.028 | 7.26 | 0.0 | 0 | 0.00 | 0.00 | 0.00 | 0.00 |
| 05/07/26 3:48:31 AM | 35 | 0.0 | 0.0 | 53 | 84 | 68.6 | 54.6 | 30.027 | 7.26 | 0.0 | 0 | 0.00 | 0.00 | 0.00 | 0.00 |
| 05/07/26 3:49:20 AM | 34 | 0.0 | 0.0 | 53 | 84 | 68.6 | 54.6 | 30.025 | 7.26 | 0.0 | 0 | 0.00 | 0.00 | 0.00 | 0.00 |
| 05/07/26 3:50:33 AM | 32 | 0.0 | 0.0 | 53 | 84 | 68.6 | 54.6 | 30.027 | 7.26 | 0.0 | 0 | 0.00 | 0.00 | 0.00 | 0.00 |
| 05/07/26 3:51:25 AM | 35 | 0.0 | 0.0 | 53 | 84 | 68.6 | 54.6 | 30.026 | 7.26 | 0.0 | 0 | 0.00 | 0.00 | 0.00 | 0.00 |
| 05/07/26 3:52:17 AM | 34 | 0.0 | 0.0 | 53 | 84 | 68.6 | 54.6 | 30.025 | 7.26 | 0.0 | 0 | 0.00 | 0.00 | 0.00 | 0.00 |
| 05/07/26 3:53:30 AM | 32 | 0.0 | 0.0 | 53 | 84 | 68.6 | 54.6 | 30.026 | 7.26 | 0.0 | 0 | 0.00 | 0.00 | 0.00 | 0.00 |
| 05/07/26 3:54:19 AM | 36 | 0.0 | 0.0 | 53 | 84 | 68.6 | 54.5 | 30.026 | 7.26 | 0.0 | 0 | 0.00 | 0.00 | 0.00 | 0.00 |
| 05/07/26 3:55:32 AM | 32 | 0.0 | 0.0 | 53 | 84 | 68.6 | 54.5 | 30.023 | 7.26 | 0.0 | 0 | 0.00 | 0.00 | 0.00 | 0.00 |
| 05/07/26 3:56:23 AM | 38 | 0.0 | 0.0 | 53 | 84 | 68.6 | 54.5 | 30.025 | 7.26 | 0.0 | 0 | 0.00 | 0.00 | 0.00 | 0.00 |
| 05/07/26 3:57:36 AM | 38 | 0.0 | 0.0 | 53 | 84 | 68.6 | 54.5 | 30.023 | 7.26 | 0.0 | 0 | 0.00 | 0.00 | 0.00 | 0.00 |
| 05/07/26 3:58:28 AM | 38 | 0.0 | 0.0 | 53 | 84 | 68.6 | 54.5 | 30.024 | 7.26 | 0.0 | 0 | 0.00 | 0.00 | 0.00 | 0.00 |
| 05/07/26 3:59:35 AM | 38 | 0.0 | 0.0 | 53 | 84 | 68.6 | 54.5 | 30.021 | 7.26 | 0.0 | 0 | 0.00 | 0.00 | 0.00 | 0.00 |
| 05/07/26 4:00:30 AM | 36 | 0.0 | 0.0 | 53 | 84 | 68.7 | 54.5 | 30.023 | 7.26 | 0.0 | 0 | 0.00 | 0.00 | 0.00 | 0.00 |
| 05/07/26 4:01:19 AM | 38 | 0.0 | 0.0 | 53 | 84 | 68.7 | 54.4 | 30.023 | 7.26 | 0.0 | 0 | 0.00 | 0.00 | 0.00 | 0.00 |
| 05/07/26 4:02:32 AM | 35 | 0.0 | 0.0 | 53 | 84 | 68.7 | 54.4 | 30.023 | 7.26 | 0.0 | 0 | 0.00 | 0.00 | 0.00 | 0.00 |
| 05/07/26 4:03:24 AM | 36 | 0.0 | 0.0 | 53 | 84 | 68.6 | 54.4 | 30.021 | 7.26 | 0.0 | 0 | 0.00 | 0.00 | 0.00 | 0.00 |
| 05/07/26 4:04:16 AM | 34 | 0.0 | 0.0 | 53 | 83 | 68.6 | 54.4 | 30.026 | 7.26 | 0.0 | 0 | 0.00 | 0.00 | 0.00 | 0.00 |
| 05/07/26 4:05:26 AM | 38 | 0.0 | 0.0 | 53 | 83 | 68.6 | 54.3 | 30.025 | 7.26 | 0.0 | 0 | 0.00 | 0.00 | 0.00 | 0.00 |
| 05/07/26 4:06:36 AM | 39 | 0.0 | 0.0 | 53 | 83 | 68.6 | 54.3 | 30.021 | 7.26 | 0.0 | 0 | 0.00 | 0.00 | 0.00 | 0.00 |
| 05/07/26 4:07:28 AM | 35 | 0.0 | 0.0 | 53 | 84 | 68.7 | 54.3 | 30.022 | 7.26 | 0.0 | 0 | 0.00 | 0.00 | 0.00 | 0.00 |
| 05/07/26 4:08:20 AM | 38 | 0.0 | 0.0 | 53 | 84 | 68.6 | 54.3 | 30.024 | 7.26 | 0.0 | 0 | 0.00 | 0.00 | 0.00 | 0.00 |
| 05/07/26 4:09:33 AM | 31 | 0.0 | 0.0 | 53 | 84 | 68.6 | 54.2 | 30.020 | 7.26 | 0.0 | 0 | 0.00 | 0.00 | 0.00 | 0.00 |
| 05/07/26 4:10:21 AM | 38 | 0.0 | 0.0 | 53 | 84 | 68.7 | 54.2 | 30.021 | 7.26 | 0.0 | 0 | 0.00 | 0.00 | 0.00 | 0.00 |
| 05/07/26 4:11:34 AM | 36 | 0.0 | 0.0 | 53 | 84 | 68.7 | 54.1 | 30.019 | 7.26 | 0.0 | 0 | 0.00 | 0.00 | 0.00 | 0.00 |
| 05/07/26 4:12:26 AM | 36 | 0.0 | 0.0 | 53 | 84 | 68.7 | 54.1 | 30.021 | 7.26 | 0.0 | 0 | 0.00 | 0.00 | 0.00 | 0.00 |
| 05/07/26 4:13:18 AM | 38 | 0.0 | 0.0 | 53 | 84 | 68.7 | 54.1 | 30.020 | 7.26 | 0.0 | 0 | 0.00 | 0.00 | 0.00 | 0.00 |
| 05/07/26 4:14:31 AM | 35 | 0.0 | 0.0 | 53 | 84 | 68.7 | 54.0 | 30.019 | 7.26 | 0.0 | 0 | 0.00 | 0.00 | 0.00 | 0.00 |
| 05/07/26 4:15:41 AM | 35 | 0.0 | 0.0 | 53 | 84 | 68.7 | 54.0 | 30.019 | 7.26 | 0.0 | 0 | 0.00 | 0.00 | 0.00 | 0.00 |
| 05/07/26 4:16:33 AM | 36 | 0.0 | 0.0 | 53 | 84 | 68.7 | 54.0 | 30.019 | 7.26 | 0.0 | 0 | 0.00 | 0.00 | 0.00 | 0.00 |
| 05/07/26 4:17:25 AM | 38 | 0.0 | 0.0 | 53 | 84 | 68.7 | 54.0 | 30.022 | 7.26 | 0.0 | 0 | 0.00 | 0.00 | 0.00 | 0.00 |
| 05/07/26 4:18:17 AM | 38 | 0.0 | 0.0 | 53 | 84 | 68.7 | 53.9 | 30.021 | 7.26 | 0.0 | 0 | 0.00 | 0.00 | 0.00 | 0.00 |
| 05/07/26 4:19:30 AM | 36 | 0.0 | 0.0 | 53 | 84 | 68.6 | 53.9 | 30.019 | 7.26 | 0.0 | 0 | 0.00 | 0.00 | 0.00 | 0.00 |
| 05/07/26 4:20:21 AM | 39 | 0.0 | 0.0 | 53 | 84 | 68.7 | 53.9 | 30.020 | 7.26 | 0.0 | 0 | 0.00 | 0.00 | 0.00 | 0.00 |
| 05/07/26 4:21:28 AM | 32 | 0.0 | 0.0 | 53 | 84 | 68.6 | 53.9 | 30.019 | 7.26 | 0.0 | 0 | 0.00 | 0.00 | 0.00 | 0.00 |
| 05/07/26 4:22:23 AM | 31 | 0.0 | 0.0 | 53 | 84 | 68.7 | 53.8 | 30.020 | 7.26 | 0.0 | 0 | 0.00 | 0.00 | 0.00 | 0.00 |
| 05/07/26 4:23:33 AM | 32 | 0.0 | 0.0 | 53 | 84 | 68.7 | 53.8 | 30.018 | 7.26 | 0.0 | 0 | 0.00 | 0.00 | 0.00 | 0.00 |
| 05/07/26 4:24:25 AM | 35 | 0.0 | 0.0 | 53 | 83 | 68.6 | 53.7 | 30.016 | 7.26 | 0.0 | 0 | 0.00 | 0.00 | 0.00 | 0.00 |
| 05/07/26 4:25:17 AM | 38 | 0.0 | 0.0 | 53 | 83 | 68.6 | 53.7 | 30.018 | 7.26 | 0.0 | 0 | 0.00 | 0.00 | 0.00 | 0.00 |
| 05/07/26 4:26:27 AM | 38 | 0.0 | 0.0 | 53 | 83 | 68.6 | 53.6 | 30.018 | 7.26 | 0.0 | 0 | 0.00 | 0.00 | 0.00 | 0.00 |
| 05/07/26 4:27:16 AM | 34 | 0.0 | 0.0 | 53 | 83 | 68.6 | 53.5 | 30.019 | 7.26 | 0.0 | 0 | 0.00 | 0.00 | 0.00 | 0.00 |
| 05/07/26 4:28:29 AM | 38 | 0.0 | 0.0 | 53 | 83 | 68.6 | 53.5 | 30.019 | 7.26 | 0.0 | 0 | 0.00 | 0.00 | 0.00 | 0.00 |
| 05/07/26 4:29:21 AM | 38 | 0.0 | 0.0 | 53 | 83 | 68.6 | 53.5 | 30.018 | 7.26 | 0.0 | 0 | 0.00 | 0.00 | 0.00 | 0.00 |
| 05/07/26 4:30:55 AM | 38 | 0.0 | 0.0 | 53 | 83 | 68.6 | 53.4 | 30.017 | 7.26 | 0.0 | 0 | 0.00 | 0.00 | 0.00 | 0.00 |
| 05/07/26 4:31:26 AM | 36 | 0.0 | 0.0 | 53 | 83 | 68.6 | 53.4 | 30.017 | 7.26 | 0.0 | 0 | 0.00 | 0.00 | 0.00 | 0.00 |
| 05/07/26 4:32:32 AM | 35 | 0.0 | 0.0 | 53 | 84 | 68.6 | 53.3 | 30.016 | 7.26 | 0.0 | 0 | 0.00 | 0.00 | 0.00 | 0.00 |
| 05/07/26 4:33:24 AM | 38 | 0.0 | 0.0 | 53 | 84 | 68.6 | 53.3 | 30.017 | 7.26 | 0.0 | 0 | 0.00 | 0.00 | 0.00 | 0.00 |
| 05/07/26 4:34:16 AM | 36 | 0.0 | 0.0 | 53 | 84 | 68.6 | 53.3 | 30.019 | 7.26 | 0.0 | 0 | 0.00 | 0.00 | 0.00 | 0.00 |
| 05/07/26 4:35:26 AM | 36 | 0.0 | 0.0 | 53 | 84 | 68.6 | 53.3 | 30.018 | 7.26 | 0.0 | 0 | 0.00 | 0.00 | 0.00 | 0.00 |
| 05/07/26 4:36:21 AM | 35 | 0.0 | 0.0 | 53 | 84 | 68.6 | 53.3 | 30.018 | 7.26 | 0.0 | 0 | 0.00 | 0.00 | 0.00 | 0.00 |
| 05/07/26 4:37:28 AM | 34 | 0.0 | 0.0 | 53 | 84 | 68.6 | 53.3 | 30.018 | 7.26 | 0.0 | 0 | 0.00 | 0.00 | 0.00 | 0.00 |
| 05/07/26 4:38:20 AM | 34 | 0.0 | 0.0 | 53 | 84 | 68.5 | 53.4 | 30.019 | 7.26 | 0.0 | 0 | 0.00 | 0.00 | 0.00 | 0.00 |
| 05/07/26 4:39:30 AM | 36 | 0.0 | 0.0 | 53 | 84 | 68.5 | 53.4 | 30.015 | 7.26 | 0.0 | 0 | 0.00 | 0.00 | 0.00 | 0.00 |
| 05/07/26 4:40:25 AM | 36 | 0.0 | 0.0 | 53 | 84 | 68.5 | 53.4 | 30.016 | 7.26 | 0.0 | 0 | 0.00 | 0.00 | 0.00 | 0.00 |
| 05/07/26 4:41:35 AM | 35 | 0.0 | 0.0 | 53 | 85 | 68.5 | 53.4 | 30.016 | 7.26 | 0.0 | 0 | 0.00 | 0.00 | 0.00 | 0.00 |
| 05/07/26 4:42:30 AM | 38 | 0.0 | 0.0 | 53 | 85 | 68.5 | 53.4 | 30.016 | 7.26 | 0.0 | 0 | 0.00 | 0.00 | 0.00 | 0.00 |
| 05/07/26 4:43:37 AM | 35 | 0.0 | 0.0 | 53 | 85 | 68.5 | 53.4 | 30.014 | 7.26 | 0.0 | 0 | 0.00 | 0.00 | 0.00 | 0.00 |
| 05/07/26 4:44:29 AM | 35 | 0.0 | 0.0 | 53 | 85 | 68.4 | 53.4 | 30.013 | 7.26 | 0.0 | 0 | 0.00 | 0.00 | 0.00 | 0.00 |
| 05/07/26 4:45:24 AM | 38 | 0.0 | 0.0 | 53 | 85 | 68.5 | 53.4 | 30.015 | 7.26 | 0.0 | 0 | 0.00 | 0.00 | 0.00 | 0.00 |
| 05/07/26 4:46:34 AM | 35 | 0.0 | 0.0 | 53 | 85 | 68.4 | 53.4 | 30.014 | 7.26 | 0.0 | 0 | 0.00 | 0.00 | 0.00 | 0.00 |
| 05/07/26 4:47:25 AM | 38 | 0.0 | 0.0 | 53 | 85 | 68.4 | 53.4 | 30.014 | 7.26 | 0.0 | 0 | 0.00 | 0.00 | 0.00 | 0.00 |
| 05/07/26 4:48:35 AM | 38 | 0.0 | 0.0 | 53 | 85 | 68.4 | 53.4 | 30.014 | 7.26 | 0.0 | 0 | 0.00 | 0.00 | 0.00 | 0.00 |
| 05/07/26 4:49:27 AM | 38 | 0.0 | 0.0 | 53 | 85 | 68.5 | 53.4 | 30.014 | 7.26 | 0.0 | 0 | 0.00 | 0.00 | 0.00 | 0.00 |
| 05/07/26 4:50:19 AM | 38 | 0.0 | 0.0 | 53 | 85 | 68.5 | 53.3 | 30.013 | 7.26 | 0.0 | 0 | 0.00 | 0.00 | 0.00 | 0.00 |
| 05/07/26 4:51:32 AM | 35 | 0.0 | 0.0 | 53 | 85 | 68.5 | 53.4 | 30.014 | 7.26 | 0.0 | 0 | 0.00 | 0.00 | 0.00 | 0.00 |
| 05/07/26 4:52:24 AM | 38 | 0.0 | 0.0 | 53 | 85 | 68.5 | 53.3 | 30.015 | 7.26 | 0.0 | 0 | 0.00 | 0.00 | 0.00 | 0.00 |
| 05/07/26 4:53:31 AM | 35 | 0.0 | 0.0 | 53 | 85 | 68.5 | 53.3 | 30.014 | 7.26 | 0.0 | 0 | 0.00 | 0.00 | 0.00 | 0.00 |
| 05/07/26 4:54:23 AM | 32 | 0.0 | 0.0 | 53 | 85 | 68.5 | 53.3 | 30.013 | 7.26 | 0.0 | 0 | 0.00 | 0.00 | 0.00 | 0.00 |
| 05/07/26 4:55:36 AM | 38 | 0.0 | 0.0 | 53 | 84 | 68.5 | 53.2 | 30.013 | 7.26 | 0.0 | 0 | 0.00 | 0.00 | 0.00 | 0.00 |
| 05/07/26 4:56:25 AM | 38 | 0.0 | 0.0 | 53 | 84 | 68.5 | 53.2 | 30.013 | 7.26 | 0.0 | 0 | 0.00 | 0.00 | 0.00 | 0.00 |
| 05/07/26 4:57:16 AM | 38 | 0.0 | 0.0 | 53 | 84 | 68.5 | 53.2 | 30.013 | 7.26 | 0.0 | 0 | 0.00 | 0.00 | 0.00 | 0.00 |
| 05/07/26 4:58:29 AM | 39 | 0.0 | 0.0 | 53 | 85 | 68.5 | 53.2 | 30.014 | 7.26 | 0.0 | 0 | 0.00 | 0.00 | 0.00 | 0.00 |
| 05/07/26 4:59:18 AM | 35 | 0.0 | 0.0 | 53 | 84 | 68.5 | 53.2 | 30.013 | 7.26 | 0.0 | 0 | 0.00 | 0.00 | 0.00 | 0.00 |
| 05/07/26 5:00:53 AM | 38 | 0.0 | 0.0 | 53 | 84 | 68.4 | 53.2 | 30.014 | 7.26 | 0.0 | 0 | 0.00 | 0.00 | 0.00 | 0.00 |
| 05/07/26 5:01:23 AM | 32 | 0.0 | 0.0 | 53 | 85 | 68.5 | 53.2 | 30.014 | 7.26 | 0.0 | 0 | 0.00 | 0.00 | 0.00 | 0.00 |
| 05/07/26 5:02:36 AM | 35 | 0.0 | 0.0 | 53 | 85 | 68.4 | 53.1 | 30.014 | 7.26 | 0.0 | 0 | 0.00 | 0.00 | 0.00 | 0.00 |
| 05/07/26 5:03:28 AM | 36 | 0.0 | 0.0 | 53 | 85 | 68.4 | 53.2 | 30.013 | 7.26 | 0.0 | 0 | 0.00 | 0.00 | 0.00 | 0.00 |
| 05/07/26 5:04:17 AM | 38 | 0.0 | 0.0 | 53 | 85 | 68.4 | 53.2 | 30.013 | 7.26 | 0.0 | 0 | 0.00 | 0.00 | 0.00 | 0.00 |
| 05/07/26 5:05:27 AM | 35 | 0.0 | 0.0 | 53 | 85 | 68.4 | 53.1 | 30.014 | 7.26 | 0.0 | 0 | 0.00 | 0.00 | 0.00 | 0.00 |
| 05/07/26 5:06:19 AM | 38 | 0.0 | 0.0 | 53 | 85 | 68.4 | 53.1 | 30.012 | 7.26 | 0.0 | 0 | 0.00 | 0.00 | 0.00 | 0.00 |
| 05/07/26 5:07:32 AM | 38 | 0.0 | 0.0 | 53 | 85 | 68.3 | 53.1 | 30.012 | 7.26 | 0.0 | 0 | 0.00 | 0.00 | 0.00 | 0.00 |
| 05/07/26 5:08:24 AM | 35 | 0.0 | 0.0 | 53 | 85 | 68.3 | 53.1 | 30.013 | 7.26 | 0.0 | 0 | 0.00 | 0.00 | 0.00 | 0.00 |
| 05/07/26 5:09:37 AM | 34 | 0.0 | 0.0 | 53 | 85 | 68.2 | 53.1 | 30.011 | 7.26 | 0.0 | 0 | 0.00 | 0.00 | 0.00 | 0.00 |
| 05/07/26 5:10:26 AM | 39 | 0.0 | 0.0 | 53 | 85 | 68.0 | 53.1 | 30.012 | 7.26 | 0.0 | 0 | 0.00 | 0.00 | 0.00 | 0.00 |
| 05/07/26 5:11:36 AM | 35 | 0.0 | 0.0 | 53 | 85 | 67.9 | 53.1 | 30.009 | 7.26 | 0.0 | 0 | 0.00 | 0.00 | 0.00 | 0.00 |
| 05/07/26 5:12:28 AM | 38 | 0.0 | 0.0 | 53 | 85 | 67.8 | 53.1 | 30.012 | 7.26 | 0.0 | 0 | 0.00 | 0.00 | 0.00 | 0.00 |
| 05/07/26 5:13:19 AM | 32 | 0.0 | 0.0 | 53 | 85 | 67.7 | 53.0 | 30.011 | 7.26 | 0.0 | 0 | 0.00 | 0.00 | 0.00 | 0.00 |
| 05/07/26 5:14:32 AM | 35 | 0.0 | 0.0 | 53 | 85 | 67.7 | 53.0 | 30.006 | 7.26 | 0.0 | 0 | 0.00 | 0.00 | 0.00 | 0.00 |
| 05/07/26 5:15:42 AM | 38 | 0.0 | 0.0 | 53 | 85 | 67.5 | 52.9 | 30.009 | 7.26 | 0.0 | 0 | 0.00 | 0.00 | 0.00 | 0.00 |
| 05/07/26 5:16:34 AM | 34 | 0.0 | 0.0 | 53 | 85 | 67.4 | 52.9 | 30.009 | 7.26 | 0.0 | 0 | 0.00 | 0.00 | 0.00 | 0.00 |
| 05/07/26 5:17:26 AM | 35 | 0.0 | 0.0 | 53 | 85 | 67.3 | 52.8 | 30.009 | 7.26 | 0.0 | 0 | 0.00 | 0.00 | 0.00 | 0.00 |
| 05/07/26 5:18:18 AM | 36 | 0.0 | 0.0 | 53 | 85 | 67.2 | 52.8 | 30.009 | 7.26 | 0.0 | 0 | 0.00 | 0.00 | 0.00 | 0.00 |
| 05/07/26 5:19:31 AM | 36 | 0.0 | 0.0 | 53 | 85 | 67.1 | 52.8 | 30.008 | 7.26 | 0.0 | 0 | 0.00 | 0.00 | 0.00 | 0.00 |
| 05/07/26 5:20:20 AM | 35 | 0.0 | 0.0 | 53 | 85 | 67.0 | 52.8 | 30.009 | 7.26 | 0.0 | 0 | 0.00 | 0.00 | 0.00 | 0.00 |
| 05/07/26 5:22:52 AM | 32 | 0.0 | 0.0 | 53 | 85 | 66.8 | 52.9 | 30.011 | 7.26 | 0.0 | 0 | 0.00 | 0.00 | 0.00 | 0.00 |
| 05/07/26 5:23:25 AM | 38 | 0.0 | 0.0 | 53 | 85 | 66.6 | 52.8 | 30.010 | 7.26 | 0.0 | 0 | 0.00 | 0.00 | 0.00 | 0.00 |
| 05/07/26 5:24:35 AM | 38 | 0.0 | 0.0 | 53 | 85 | 66.5 | 52.9 | 30.007 | 7.26 | 0.0 | 0 | 0.00 | 0.00 | 0.00 | 0.00 |
| 05/07/26 5:25:27 AM | 32 | 0.0 | 0.0 | 53 | 85 | 66.4 | 52.9 | 30.012 | 7.26 | 0.0 | 0 | 0.00 | 0.00 | 0.00 | 0.00 |
| 05/07/26 5:26:22 AM | 38 | 0.0 | 0.0 | 53 | 85 | 66.4 | 52.9 | 30.010 | 7.26 | 0.0 | 0 | 0.00 | 0.00 | 0.00 | 0.00 |
| 05/07/26 5:27:29 AM | 38 | 0.0 | 0.0 | 53 | 85 | 66.3 | 52.8 | 30.013 | 7.26 | 0.0 | 0 | 0.00 | 0.00 | 0.00 | 0.00 |
| 05/07/26 5:28:21 AM | 36 | 0.0 | 0.0 | 53 | 85 | 66.2 | 52.8 | 30.012 | 7.26 | 0.0 | 0 | 0.00 | 0.00 | 0.00 | 0.00 |
| 05/07/26 5:29:34 AM | 39 | 0.0 | 0.0 | 53 | 85 | 66.1 | 52.8 | 30.011 | 7.26 | 0.0 | 0 | 0.00 | 0.00 | 0.00 | 0.00 |
| 05/07/26 5:30:50 AM | 36 | 0.0 | 0.0 | 53 | 85 | 66.1 | 52.8 | 30.009 | 7.26 | 0.0 | 0 | 0.00 | 0.00 | 0.00 | 0.00 |
| 05/07/26 5:31:18 AM | 36 | 0.0 | 0.0 | 54 | 85 | 66.0 | 52.8 | 30.007 | 7.26 | 0.0 | 0 | 0.00 | 0.00 | 0.00 | 0.00 |
| 05/07/26 5:32:31 AM | 38 | 0.0 | 0.0 | 54 | 85 | 65.9 | 52.7 | 30.010 | 7.26 | 0.0 | 0 | 0.00 | 0.00 | 0.00 | 0.00 |
| 05/07/26 5:33:17 AM | 38 | 0.0 | 0.0 | 54 | 85 | 65.8 | 52.7 | 30.007 | 7.26 | 0.0 | 0 | 0.00 | 0.00 | 0.00 | 0.00 |
| 05/07/26 5:34:30 AM | 36 | 0.0 | 0.0 | 54 | 85 | 65.7 | 52.7 | 30.009 | 7.26 | 0.0 | 0 | 0.00 | 0.00 | 0.00 | 0.00 |
| 05/07/26 5:35:22 AM | 38 | 0.0 | 0.0 | 54 | 85 | 65.7 | 52.7 | 30.008 | 7.26 | 0.0 | 0 | 0.00 | 0.00 | 0.00 | 0.00 |
| 05/07/26 5:36:35 AM | 36 | 0.0 | 0.0 | 54 | 85 | 65.6 | 52.6 | 30.006 | 7.26 | 0.0 | 0 | 0.00 | 0.00 | 0.00 | 0.00 |
| 05/07/26 5:37:27 AM | 32 | 0.0 | 0.0 | 55 | 85 | 65.5 | 52.6 | 30.007 | 7.26 | 0.0 | 0 | 0.00 | 0.00 | 0.00 | 0.00 |
| 05/07/26 5:38:19 AM | 35 | 0.0 | 0.0 | 55 | 85 | 65.5 | 52.6 | 30.007 | 7.26 | 0.0 | 0 | 0.00 | 0.00 | 0.00 | 0.00 |
| 05/07/26 5:39:26 AM | 38 | 0.0 | 0.0 | 55 | 85 | 65.4 | 52.6 | 30.007 | 7.26 | 0.0 | 0 | 0.00 | 0.00 | 0.00 | 0.00 |
| 05/07/26 5:40:18 AM | 38 | 0.0 | 0.0 | 55 | 85 | 65.4 | 52.6 | 30.007 | 7.26 | 0.0 | 0 | 0.00 | 0.00 | 0.00 | 0.00 |
| 05/07/26 5:41:31 AM | 38 | 0.0 | 0.0 | 55 | 85 | 65.3 | 52.6 | 30.007 | 7.26 | 0.0 | 0 | 0.00 | 0.00 | 0.00 | 0.00 |
| 05/07/26 5:42:23 AM | 38 | 0.0 | 0.0 | 55 | 85 | 65.2 | 52.5 | 30.007 | 7.26 | 0.0 | 0 | 0.00 | 0.00 | 0.00 | 0.00 |
| 05/07/26 5:43:36 AM | 38 | 0.0 | 0.0 | 55 | 85 | 65.2 | 52.5 | 30.008 | 7.26 | 0.0 | 0 | 0.00 | 0.00 | 0.00 | 0.00 |
| 05/07/26 5:44:22 AM | 38 | 0.0 | 0.0 | 55 | 85 | 65.2 | 52.5 | 30.007 | 7.26 | 0.0 | 0 | 0.00 | 0.00 | 0.00 | 0.00 |
| 05/07/26 5:45:35 AM | 35 | 0.0 | 0.0 | 55 | 85 | 65.1 | 52.4 | 30.008 | 7.26 | 0.0 | 0 | 0.00 | 0.00 | 0.00 | 0.00 |
| 05/07/26 5:46:24 AM | 40 | 0.0 | 0.0 | 55 | 85 | 65.0 | 52.4 | 30.007 | 7.26 | 0.0 | 0 | 0.00 | 0.00 | 0.00 | 0.00 |
| 05/07/26 5:47:15 AM | 38 | 0.0 | 0.0 | 55 | 85 | 64.9 | 52.4 | 30.007 | 7.26 | 0.0 | 0 | 0.00 | 0.00 | 0.00 | 0.00 |
| 05/07/26 5:48:28 AM | 31 | 0.0 | 0.0 | 55 | 85 | 64.9 | 52.4 | 30.008 | 7.26 | 0.0 | 0 | 0.00 | 0.00 | 0.00 | 0.00 |
| 05/07/26 5:49:35 AM | 38 | 0.0 | 0.0 | 55 | 85 | 64.8 | 52.4 | 30.006 | 7.26 | 0.0 | 0 | 0.00 | 0.00 | 0.00 | 0.00 |
| 05/07/26 5:50:27 AM | 36 | 0.0 | 0.0 | 55 | 85 | 64.8 | 52.4 | 30.008 | 7.26 | 0.0 | 0 | 0.00 | 0.00 | 0.00 | 0.00 |
| 05/07/26 5:51:19 AM | 38 | 0.0 | 0.0 | 55 | 85 | 64.8 | 52.4 | 30.005 | 7.26 | 0.0 | 0 | 0.00 | 0.00 | 0.00 | 0.00 |
| 05/07/26 5:52:32 AM | 36 | 0.0 | 0.0 | 55 | 85 | 64.8 | 52.3 | 30.008 | 7.26 | 0.0 | 0 | 0.00 | 0.00 | 0.00 | 0.00 |
| 05/07/26 5:53:24 AM | 38 | 0.0 | 0.0 | 55 | 85 | 64.7 | 52.3 | 30.007 | 7.26 | 0.0 | 0 | 0.00 | 0.00 | 0.00 | 0.00 |
| 05/07/26 5:54:16 AM | 38 | 0.0 | 0.0 | 55 | 85 | 64.7 | 52.3 | 30.009 | 7.26 | 0.0 | 0 | 0.00 | 0.00 | 0.00 | 0.00 |
| 05/07/26 5:55:26 AM | 38 | 0.0 | 0.0 | 55 | 85 | 64.6 | 52.3 | 30.007 | 7.26 | 0.0 | 0 | 0.00 | 0.00 | 0.00 | 0.00 |
| 05/07/26 5:56:18 AM | 38 | 0.0 | 0.0 | 55 | 85 | 64.6 | 52.2 | 30.008 | 7.26 | 0.0 | 0 | 0.00 | 0.00 | 0.00 | 0.00 |
| 05/07/26 5:57:31 AM | 36 | 0.0 | 0.0 | 55 | 85 | 64.5 | 52.2 | 30.009 | 7.26 | 0.0 | 5 | 0.00 | 0.00 | 0.00 | 0.00 |
| 05/07/26 5:58:23 AM | 39 | 0.0 | 0.0 | 56 | 85 | 64.4 | 52.2 | 30.008 | 7.26 | 0.0 | 5 | 0.00 | 0.00 | 0.00 | 0.00 |
| 05/07/26 5:59:33 AM | 32 | 0.0 | 0.0 | 56 | 85 | 64.4 | 52.2 | 30.008 | 7.26 | 0.0 | 5 | 0.00 | 0.00 | 0.00 | 0.00 |
| 05/07/26 6:00:25 AM | 31 | 0.0 | 0.0 | 56 | 85 | 64.4 | 52.2 | 30.007 | 7.26 | 0.0 | 7 | 0.00 | 0.00 | 0.00 | 0.00 |
| 05/07/26 6:01:35 AM | 36 | 0.0 | 0.0 | 56 | 85 | 64.3 | 52.2 | 30.007 | 7.26 | 0.0 | 7 | 0.00 | 0.00 | 0.00 | 0.00 |
| 05/07/26 6:02:27 AM | 35 | 0.0 | 0.0 | 56 | 85 | 64.3 | 52.2 | 30.008 | 7.26 | 0.0 | 7 | 0.00 | 0.00 | 0.00 | 0.00 |
| 05/07/26 6:03:19 AM | 38 | 0.0 | 0.0 | 56 | 85 | 64.2 | 52.2 | 30.009 | 7.26 | 0.0 | 7 | 0.00 | 0.00 | 0.00 | 0.00 |
| 05/07/26 6:04:32 AM | 35 | 0.0 | 0.0 | 56 | 85 | 64.2 | 52.2 | 30.008 | 7.26 | 0.0 | 7 | 0.00 | 0.00 | 0.00 | 0.00 |
| 05/07/26 6:05:18 AM | 35 | 0.0 | 0.0 | 56 | 85 | 64.2 | 52.2 | 30.009 | 7.26 | 0.0 | 9 | 0.00 | 0.00 | 0.00 | 0.00 |
| 05/07/26 6:06:31 AM | 36 | 0.0 | 0.0 | 57 | 85 | 64.2 | 52.1 | 30.009 | 7.26 | 0.0 | 9 | 0.00 | 0.00 | 0.00 | 0.00 |
| 05/07/26 6:07:23 AM | 32 | 0.0 | 0.0 | 57 | 85 | 64.1 | 52.1 | 30.011 | 7.26 | 0.0 | 9 | 0.00 | 0.00 | 0.00 | 0.00 |
| 05/07/26 6:08:33 AM | 35 | 0.0 | 0.0 | 57 | 85 | 64.1 | 52.1 | 30.006 | 7.26 | 0.0 | 9 | 0.00 | 0.00 | 0.00 | 0.00 |
| 05/07/26 6:09:28 AM | 35 | 0.0 | 0.0 | 57 | 85 | 64.1 | 52.1 | 30.010 | 7.26 | 0.0 | 11 | 0.00 | 0.00 | 0.00 | 0.00 |
| 05/07/26 6:10:17 AM | 39 | 0.0 | 0.0 | 57 | 85 | 64.1 | 52.0 | 30.009 | 7.26 | 0.0 | 11 | 0.00 | 0.00 | 0.00 | 0.00 |
| 05/07/26 6:11:27 AM | 36 | 0.0 | 0.0 | 57 | 85 | 64.0 | 52.0 | 30.011 | 7.26 | 0.0 | 11 | 0.00 | 0.00 | 0.00 | 0.00 |
| 05/07/26 6:12:19 AM | 31 | 0.0 | 0.0 | 57 | 85 | 64.0 | 52.0 | 30.012 | 7.26 | 0.0 | 11 | 0.00 | 0.00 | 0.00 | 0.00 |
| 05/07/26 6:13:32 AM | 31 | 0.0 | 0.0 | 57 | 85 | 64.0 | 52.0 | 30.014 | 7.26 | 0.0 | 12 | 0.00 | 0.00 | 0.00 | 0.00 |
| 05/07/26 6:14:24 AM | 38 | 0.0 | 0.0 | 57 | 85 | 63.9 | 52.0 | 30.012 | 7.26 | 0.0 | 12 | 0.00 | 0.00 | 0.00 | 0.00 |
| 05/07/26 6:15:37 AM | 38 | 0.0 | 0.0 | 57 | 85 | 63.9 | 52.0 | 30.014 | 7.26 | 0.0 | 12 | 0.00 | 0.00 | 0.00 | 0.00 |
| 05/07/26 6:16:26 AM | 37 | 0.0 | 0.0 | 57 | 85 | 63.9 | 52.0 | 30.014 | 7.26 | 0.0 | 14 | 0.00 | 0.00 | 0.00 | 0.00 |
| 05/07/26 6:17:36 AM | 38 | 0.0 | 0.0 | 57 | 85 | 63.9 | 52.1 | 30.014 | 7.26 | 0.0 | 14 | 0.00 | 0.00 | 0.00 | 0.00 |
| 05/07/26 6:18:28 AM | 36 | 0.0 | 0.0 | 57 | 85 | 63.8 | 52.1 | 30.015 | 7.26 | 0.0 | 14 | 0.00 | 0.00 | 0.00 | 0.00 |
| 05/07/26 6:19:20 AM | 32 | 0.0 | 0.0 | 57 | 85 | 63.8 | 52.1 | 30.017 | 7.26 | 0.0 | 16 | 0.00 | 0.00 | 0.00 | 0.00 |
| 05/07/26 6:20:33 AM | 34 | 0.0 | 0.0 | 57 | 86 | 63.8 | 52.2 | 30.016 | 7.26 | 0.0 | 16 | 0.00 | 0.00 | 0.00 | 0.00 |
| 05/07/26 6:21:18 AM | 34 | 0.0 | 0.0 | 57 | 86 | 63.8 | 52.2 | 30.017 | 7.26 | 0.0 | 16 | 0.00 | 0.00 | 0.00 | 0.00 |
| 05/07/26 6:22:32 AM | 36 | 0.0 | 0.0 | 57 | 86 | 63.8 | 52.2 | 30.015 | 7.26 | 0.0 | 18 | 0.00 | 0.00 | 0.00 | 0.00 |
| 05/07/26 6:23:23 AM | 36 | 0.0 | 0.0 | 57 | 86 | 63.7 | 52.2 | 30.015 | 7.26 | 0.0 | 18 | 0.00 | 0.00 | 0.00 | 0.00 |
| 05/07/26 6:24:15 AM | 38 | 0.0 | 0.0 | 57 | 86 | 63.7 | 52.2 | 30.018 | 7.26 | 0.0 | 18 | 0.00 | 0.00 | 0.00 | 0.00 |
| 05/07/26 6:25:29 AM | 37 | 0.0 | 0.0 | 57 | 86 | 63.6 | 52.2 | 30.013 | 7.26 | 0.0 | 19 | 0.00 | 0.00 | 0.00 | 0.00 |
| 05/07/26 6:26:20 AM | 35 | 0.0 | 0.0 | 57 | 86 | 63.6 | 52.2 | 30.011 | 7.26 | 0.0 | 25 | 0.00 | 0.00 | 0.00 | 0.00 |
| 05/07/26 6:27:27 AM | 36 | 0.0 | 0.0 | 57 | 86 | 63.6 | 52.2 | 30.015 | 7.26 | 0.0 | 32 | 0.00 | 0.00 | 0.00 | 0.00 |
| 05/07/26 6:28:19 AM | 38 | 0.0 | 0.0 | 57 | 86 | 63.6 | 52.2 | 30.012 | 7.26 | 0.0 | 33 | 0.00 | 0.00 | 0.00 | 0.00 |
| 05/07/26 6:29:29 AM | 35 | 0.0 | 0.0 | 58 | 86 | 63.5 | 52.2 | 30.014 | 7.26 | 0.0 | 33 | 0.00 | 0.00 | 0.00 | 0.00 |
| 05/07/26 6:30:24 AM | 36 | 0.0 | 0.0 | 58 | 86 | 63.5 | 52.2 | 30.015 | 7.26 | 0.0 | 35 | 0.00 | 0.00 | 0.00 | 0.00 |
| 05/07/26 6:31:34 AM | 36 | 0.0 | 0.0 | 58 | 86 | 63.5 | 52.2 | 30.015 | 7.26 | 0.0 | 37 | 0.00 | 0.00 | 0.00 | 0.00 |
| 05/07/26 6:32:23 AM | 36 | 0.0 | 0.0 | 58 | 86 | 63.5 | 52.2 | 30.015 | 7.26 | 0.0 | 39 | 0.00 | 0.00 | 0.00 | 0.00 |
| 05/07/26 6:33:33 AM | 36 | 0.0 | 0.0 | 58 | 86 | 63.5 | 52.3 | 30.014 | 7.26 | 0.0 | 40 | 0.00 | 0.00 | 0.00 | 0.00 |
| 05/07/26 6:34:25 AM | 38 | 0.0 | 0.0 | 58 | 86 | 63.4 | 52.3 | 30.014 | 7.26 | 0.0 | 42 | 0.00 | 0.00 | 0.00 | 0.00 |
| 05/07/26 6:35:17 AM | 37 | 0.0 | 0.0 | 58 | 86 | 63.4 | 52.4 | 30.015 | 7.26 | 0.0 | 44 | 0.00 | 0.00 | 0.00 | 0.00 |
| 05/07/26 6:36:30 AM | 38 | 0.0 | 0.0 | 58 | 86 | 63.4 | 52.5 | 30.013 | 7.26 | 0.0 | 46 | 0.00 | 0.00 | 0.00 | 0.00 |
| 05/07/26 6:37:16 AM | 34 | 0.0 | 0.0 | 58 | 86 | 63.4 | 52.6 | 30.015 | 7.26 | 0.0 | 47 | 0.00 | 0.00 | 0.00 | 0.00 |
| 05/07/26 6:38:29 AM | 38 | 0.0 | 0.0 | 58 | 86 | 63.4 | 52.7 | 30.014 | 7.26 | 0.0 | 49 | 0.00 | 0.00 | 0.00 | 0.00 |
| 05/07/26 6:39:21 AM | 38 | 0.0 | 0.0 | 58 | 86 | 63.3 | 52.7 | 30.018 | 7.26 | 0.0 | 53 | 0.00 | 0.00 | 0.00 | 0.00 |
| 05/07/26 6:40:34 AM | 38 | 0.0 | 0.0 | 58 | 86 | 63.4 | 52.8 | 30.016 | 7.26 | 0.0 | 58 | 0.00 | 0.00 | 0.00 | 0.00 |
| 05/07/26 6:41:23 AM | 39 | 0.0 | 0.0 | 58 | 86 | 63.4 | 52.8 | 30.015 | 7.26 | 0.0 | 58 | 0.00 | 0.00 | 0.00 | 0.00 |
| 05/07/26 6:42:15 AM | 36 | 0.0 | 0.0 | 58 | 86 | 63.4 | 52.9 | 30.015 | 7.26 | 0.0 | 62 | 0.00 | 0.00 | 0.00 | 0.00 |
| 05/07/26 6:43:25 AM | 31 | 0.0 | 0.0 | 58 | 86 | 63.4 | 52.9 | 30.019 | 7.26 | 0.0 | 67 | 0.00 | 0.00 | 0.00 | 0.00 |
| 05/07/26 6:44:35 AM | 36 | 0.0 | 0.0 | 58 | 86 | 63.4 | 53.0 | 30.020 | 7.26 | 0.0 | 67 | 0.00 | 0.00 | 0.00 | 0.00 |
| 05/07/26 6:45:54 AM | 34 | 0.0 | 0.0 | 58 | 86 | 63.4 | 53.0 | 30.017 | 7.26 | 0.0 | 74 | 0.00 | 0.00 | 0.00 | 0.00 |
| 05/07/26 6:46:28 AM | 35 | 0.0 | 0.0 | 58 | 86 | 63.4 | 53.0 | 30.019 | 7.26 | 0.0 | 76 | 0.00 | 0.00 | 0.00 | 0.00 |
| 05/07/26 6:47:20 AM | 35 | 0.0 | 0.0 | 58 | 86 | 63.3 | 53.1 | 30.021 | 7.26 | 0.0 | 79 | 0.00 | 0.00 | 0.00 | 0.00 |
| 05/07/26 6:48:27 AM | 35 | 0.0 | 0.0 | 59 | 86 | 63.3 | 53.1 | 30.021 | 7.26 | 0.0 | 83 | 0.00 | 0.00 | 0.00 | 0.00 |
| 05/07/26 6:49:22 AM | 38 | 0.0 | 0.0 | 59 | 86 | 63.3 | 53.1 | 30.018 | 7.26 | 0.0 | 86 | 0.00 | 0.00 | 0.00 | 0.00 |
| 05/07/26 6:50:32 AM | 38 | 0.0 | 0.0 | 59 | 86 | 63.4 | 53.2 | 30.018 | 7.26 | 0.0 | 90 | 0.00 | 0.00 | 0.00 | 0.00 |
| 05/07/26 6:51:24 AM | 36 | 0.0 | 0.0 | 59 | 86 | 63.4 | 53.2 | 30.018 | 7.26 | 0.0 | 91 | 0.00 | 0.00 | 0.00 | 0.00 |
| 05/07/26 6:52:37 AM | 36 | 0.0 | 0.0 | 59 | 87 | 63.3 | 53.3 | 30.018 | 7.26 | 0.0 | 91 | 0.00 | 0.00 | 0.00 | 0.00 |
| 05/07/26 6:53:29 AM | 34 | 0.0 | 0.0 | 59 | 87 | 63.4 | 53.4 | 30.018 | 7.26 | 0.0 | 97 | 0.00 | 0.00 | 0.00 | 0.00 |
| 05/07/26 6:54:36 AM | 38 | 0.0 | 0.0 | 59 | 87 | 63.3 | 53.6 | 30.018 | 7.26 | 0.0 | 104 | 0.00 | 0.00 | 0.00 | 0.00 |
| 05/07/26 6:55:27 AM | 36 | 0.0 | 0.0 | 59 | 86 | 63.4 | 53.6 | 30.018 | 7.26 | 0.0 | 104 | 0.00 | 0.00 | 0.00 | 0.00 |
| 05/07/26 6:56:20 AM | 38 | 0.0 | 0.0 | 59 | 86 | 63.4 | 53.7 | 30.018 | 7.26 | 0.0 | 105 | 0.00 | 0.00 | 0.00 | 0.00 |
| 05/07/26 6:57:33 AM | 36 | 0.0 | 0.0 | 59 | 86 | 63.4 | 53.8 | 30.017 | 7.26 | 0.0 | 113 | 0.00 | 0.00 | 0.00 | 0.00 |
| 05/07/26 6:58:27 AM | 36 | 0.0 | 0.0 | 59 | 86 | 63.4 | 53.9 | 30.018 | 7.26 | 0.0 | 116 | 0.00 | 0.00 | 0.00 | 0.00 |
| 05/07/26 6:59:35 AM | 38 | 0.0 | 0.0 | 59 | 87 | 63.3 | 53.9 | 30.018 | 7.26 | 0.0 | 116 | 0.00 | 0.00 | 0.00 | 0.00 |
| 05/07/26 7:00:48 AM | 35 | 0.0 | 0.0 | 59 | 86 | 63.4 | 54.0 | 30.019 | 7.26 | 0.0 | 121 | 0.00 | 0.00 | 0.00 | 0.00 |
| 05/07/26 7:01:21 AM | 36 | 0.0 | 0.0 | 60 | 86 | 63.4 | 54.1 | 30.017 | 7.26 | 0.0 | 125 | 0.00 | 0.00 | 0.00 | 0.00 |
| 05/07/26 7:02:31 AM | 36 | 0.0 | 0.0 | 60 | 86 | 63.4 | 54.2 | 30.020 | 7.26 | 0.0 | 125 | 0.00 | 0.00 | 0.00 | 0.00 |
| 05/07/26 7:03:23 AM | 36 | 0.0 | 0.0 | 60 | 86 | 63.4 | 54.3 | 30.019 | 7.26 | 0.0 | 130 | 0.00 | 0.00 | 0.00 | 0.00 |
| 05/07/26 7:04:34 AM | 34 | 0.0 | 0.0 | 60 | 86 | 63.4 | 54.5 | 30.021 | 7.26 | 0.0 | 134 | 0.00 | 0.00 | 0.00 | 0.00 |
| 05/07/26 7:05:26 AM | 35 | 0.0 | 0.0 | 60 | 86 | 63.5 | 54.6 | 30.020 | 7.26 | 0.0 | 137 | 0.00 | 0.00 | 0.00 | 0.00 |
| 05/07/26 7:06:36 AM | 38 | 0.0 | 0.0 | 60 | 86 | 63.5 | 54.7 | 30.021 | 7.26 | 0.0 | 139 | 0.00 | 0.00 | 0.00 | 0.00 |
| 05/07/26 7:07:28 AM | 35 | 0.0 | 0.0 | 60 | 86 | 63.5 | 54.9 | 30.022 | 7.26 | 0.0 | 142 | 0.00 | 0.00 | 0.00 | 0.00 |
| 05/07/26 7:08:20 AM | 38 | 0.0 | 0.0 | 60 | 86 | 63.5 | 55.0 | 30.022 | 7.26 | 0.0 | 148 | 0.00 | 0.00 | 0.00 | 0.00 |
| 05/07/26 7:09:33 AM | 32 | 0.0 | 0.0 | 60 | 86 | 63.6 | 55.2 | 30.019 | 7.26 | 0.0 | 149 | 0.00 | 0.00 | 0.00 | 0.00 |
| 05/07/26 7:10:22 AM | 34 | 0.0 | 0.0 | 60 | 86 | 63.6 | 55.3 | 30.023 | 7.26 | 0.0 | 153 | 0.00 | 0.00 | 0.00 | 0.00 |
| 05/07/26 7:11:32 AM | 32 | 0.0 | 0.0 | 60 | 86 | 63.6 | 55.4 | 30.023 | 7.26 | 0.0 | 160 | 0.00 | 0.00 | 0.00 | 0.00 |
| 05/07/26 7:12:24 AM | 35 | 0.0 | 0.0 | 60 | 86 | 63.6 | 55.5 | 30.022 | 7.26 | 0.0 | 162 | 0.00 | 0.00 | 0.00 | 0.00 |
| 05/07/26 7:13:37 AM | 35 | 0.0 | 0.0 | 60 | 86 | 63.6 | 55.7 | 30.023 | 7.26 | 0.0 | 165 | 0.00 | 0.00 | 0.00 | 0.00 |
| 05/07/26 7:14:29 AM | 36 | 0.0 | 0.0 | 60 | 86 | 63.7 | 55.7 | 30.021 | 7.26 | 0.0 | 169 | 0.00 | 0.00 | 0.00 | 0.00 |
| 05/07/26 7:15:21 AM | 36 | 0.0 | 0.0 | 60 | 86 | 63.7 | 55.8 | 30.021 | 7.26 | 0.0 | 172 | 0.00 | 0.00 | 0.00 | 0.00 |
| 05/07/26 7:16:25 AM | 36 | 0.0 | 0.0 | 60 | 86 | 63.7 | 55.9 | 30.021 | 7.26 | 0.0 | 176 | 0.00 | 0.00 | 0.00 | 0.00 |
| 05/07/26 7:17:20 AM | 38 | 0.0 | 0.0 | 60 | 86 | 63.8 | 56.0 | 30.022 | 7.26 | 0.0 | 179 | 0.00 | 0.00 | 0.00 | 0.00 |
| 05/07/26 7:18:30 AM | 31 | 0.0 | 0.0 | 60 | 86 | 63.8 | 56.1 | 30.025 | 7.26 | 0.0 | 183 | 0.00 | 0.00 | 0.00 | 0.00 |
| 05/07/26 7:19:22 AM | 35 | 0.0 | 0.0 | 60 | 86 | 63.8 | 56.1 | 30.023 | 7.26 | 0.0 | 185 | 0.00 | 0.00 | 0.00 | 0.00 |
| 05/07/26 7:20:32 AM | 38 | 0.0 | 0.0 | 60 | 86 | 63.8 | 56.3 | 30.022 | 7.26 | 0.0 | 188 | 0.00 | 0.00 | 0.00 | 0.00 |
| 05/07/26 7:21:24 AM | 32 | 0.0 | 0.0 | 60 | 86 | 63.8 | 56.3 | 30.022 | 7.26 | 0.0 | 192 | 0.00 | 0.00 | 0.00 | 0.00 |
| 05/07/26 7:22:37 AM | 36 | 0.0 | 0.0 | 60 | 86 | 63.8 | 56.4 | 30.023 | 7.26 | 0.0 | 195 | 0.00 | 0.00 | 0.00 | 0.00 |
| 05/07/26 7:23:29 AM | 38 | 0.0 | 0.0 | 60 | 86 | 63.9 | 56.6 | 30.023 | 7.26 | 0.0 | 199 | 0.00 | 0.00 | 0.00 | 0.00 |
| 05/07/26 7:24:21 AM | 38 | 0.0 | 0.0 | 60 | 86 | 63.9 | 56.7 | 30.025 | 7.26 | 0.0 | 202 | 0.00 | 0.00 | 0.00 | 0.00 |
| 05/07/26 7:25:34 AM | 38 | 0.0 | 0.0 | 60 | 86 | 63.9 | 56.8 | 30.023 | 7.26 | 0.0 | 207 | 0.00 | 0.00 | 0.00 | 0.00 |
| 05/07/26 7:26:20 AM | 38 | 0.0 | 0.0 | 61 | 86 | 64.0 | 57.0 | 30.026 | 7.26 | 0.0 | 207 | 0.00 | 0.00 | 0.00 | 0.00 |
| 05/07/26 7:27:33 AM | 38 | 0.0 | 0.0 | 61 | 86 | 64.0 | 57.2 | 30.026 | 7.26 | 0.0 | 214 | 0.00 | 0.00 | 0.00 | 0.00 |
| 05/07/26 7:28:25 AM | 35 | 0.0 | 0.0 | 61 | 86 | 64.0 | 57.3 | 30.022 | 7.26 | 0.0 | 218 | 0.00 | 0.00 | 0.00 | 0.00 |
| 05/07/26 7:29:35 AM | 38 | 0.0 | 0.0 | 61 | 86 | 64.1 | 57.5 | 30.025 | 7.26 | 0.0 | 221 | 0.00 | 0.00 | 0.00 | 0.00 |
| 05/07/26 7:30:30 AM | 32 | 0.0 | 0.0 | 61 | 85 | 64.1 | 57.7 | 30.024 | 7.26 | 0.0 | 223 | 0.00 | 0.00 | 0.00 | 0.00 |
| 05/07/26 7:31:19 AM | 36 | 0.0 | 0.0 | 61 | 85 | 64.1 | 57.8 | 30.024 | 7.26 | 0.0 | 227 | 0.00 | 0.00 | 0.00 | 0.00 |
| 05/07/26 7:32:29 AM | 31 | 0.0 | 0.0 | 61 | 85 | 64.1 | 58.0 | 30.023 | 7.26 | 0.0 | 230 | 0.00 | 0.00 | 0.00 | 0.00 |
| 05/07/26 7:33:21 AM | 38 | 0.0 | 0.0 | 61 | 85 | 64.2 | 58.1 | 30.022 | 7.26 | 0.0 | 234 | 0.00 | 0.00 | 0.00 | 0.00 |
| 05/07/26 7:34:34 AM | 36 | 0.0 | 0.0 | 61 | 84 | 64.2 | 58.2 | 30.024 | 7.26 | 0.5 | 237 | 0.00 | 0.00 | 0.00 | 0.00 |
| 05/07/26 7:35:23 AM | 38 | 0.0 | 0.0 | 61 | 84 | 64.2 | 58.4 | 30.023 | 7.26 | 0.5 | 241 | 0.00 | 0.00 | 0.00 | 0.00 |
| 05/07/26 7:36:18 AM | 35 | 0.0 | 0.0 | 61 | 84 | 64.3 | 58.5 | 30.022 | 7.26 | 0.5 | 244 | 0.00 | 0.00 | 0.00 | 0.00 |
| 05/07/26 7:37:25 AM | 35 | 0.0 | 0.0 | 61 | 83 | 64.3 | 58.6 | 30.022 | 7.26 | 0.5 | 248 | 0.00 | 0.00 | 0.00 | 0.00 |
| 05/07/26 7:38:35 AM | 35 | 0.0 | 0.0 | 61 | 83 | 64.4 | 58.8 | 30.022 | 7.26 | 0.5 | 250 | 0.00 | 0.00 | 0.00 | 0.00 |
| 05/07/26 7:39:27 AM | 34 | 0.0 | 0.0 | 61 | 83 | 64.4 | 58.9 | 30.021 | 7.26 | 0.5 | 253 | 0.00 | 0.00 | 0.00 | 0.00 |
| 05/07/26 7:40:19 AM | 34 | 0.0 | 0.0 | 61 | 82 | 64.4 | 58.9 | 30.021 | 7.26 | 0.5 | 257 | 0.00 | 0.00 | 0.00 | 0.00 |
| 05/07/26 7:41:32 AM | 38 | 0.0 | 0.0 | 61 | 82 | 64.5 | 59.1 | 30.018 | 7.26 | 0.5 | 264 | 0.00 | 0.00 | 0.00 | 0.00 |
| 05/07/26 7:42:18 AM | 37 | 0.0 | 0.0 | 61 | 81 | 64.5 | 59.2 | 30.019 | 7.26 | 0.5 | 264 | 0.00 | 0.00 | 0.00 | 0.00 |
| 05/07/26 7:43:31 AM | 34 | 0.0 | 0.0 | 61 | 81 | 64.6 | 59.3 | 30.021 | 7.26 | 0.5 | 269 | 0.00 | 0.00 | 0.00 | 0.00 |
| 05/07/26 7:44:23 AM | 30 | 0.0 | 0.0 | 61 | 81 | 64.5 | 59.4 | 30.016 | 7.26 | 0.6 | 272 | 0.00 | 0.00 | 0.00 | 0.00 |
| 05/07/26 7:45:36 AM | 30 | 0.0 | 0.0 | 61 | 81 | 64.6 | 59.5 | 30.016 | 7.26 | 0.6 | 276 | 0.00 | 0.00 | 0.00 | 0.00 |
| 05/07/26 7:46:28 AM | 36 | 0.0 | 0.0 | 61 | 80 | 64.6 | 59.6 | 30.017 | 7.26 | 0.6 | 279 | 0.00 | 0.00 | 0.00 | 0.00 |
| 05/07/26 7:47:20 AM | 37 | 0.0 | 0.0 | 61 | 80 | 64.7 | 59.7 | 30.017 | 7.26 | 0.6 | 281 | 0.00 | 0.00 | 0.00 | 0.00 |
| 05/07/26 7:48:30 AM | 36 | 0.0 | 0.0 | 61 | 80 | 64.7 | 59.8 | 30.022 | 7.26 | 0.6 | 285 | 0.00 | 0.00 | 0.00 | 0.00 |
| 05/07/26 7:49:22 AM | 35 | 0.0 | 0.0 | 61 | 80 | 64.8 | 59.9 | 30.017 | 7.26 | 0.6 | 287 | 0.00 | 0.00 | 0.00 | 0.00 |
| 05/07/26 7:50:32 AM | 35 | 0.0 | 0.0 | 61 | 80 | 64.8 | 60.0 | 30.022 | 7.26 | 0.6 | 287 | 0.00 | 0.00 | 0.00 | 0.00 |
| 05/07/26 7:51:24 AM | 36 | 0.0 | 0.0 | 61 | 80 | 64.8 | 60.2 | 30.018 | 7.26 | 0.7 | 292 | 0.00 | 0.00 | 0.00 | 0.00 |
| 05/07/26 7:52:16 AM | 35 | 0.0 | 0.0 | 61 | 80 | 64.9 | 60.3 | 30.018 | 7.26 | 0.7 | 297 | 0.00 | 0.00 | 0.00 | 0.00 |
| 05/07/26 7:53:23 AM | 36 | 0.0 | 0.0 | 61 | 79 | 64.9 | 60.5 | 30.017 | 7.26 | 0.7 | 301 | 0.00 | 0.00 | 0.00 | 0.00 |
| 05/07/26 7:54:36 AM | 32 | 0.0 | 0.0 | 61 | 79 | 65.0 | 60.7 | 30.021 | 7.26 | 0.7 | 309 | 0.00 | 0.00 | 0.00 | 0.00 |
| 05/07/26 7:55:28 AM | 38 | 0.0 | 0.0 | 61 | 79 | 65.0 | 60.9 | 30.016 | 7.26 | 0.7 | 309 | 0.00 | 0.00 | 0.00 | 0.00 |
| 05/07/26 7:56:20 AM | 31 | 0.0 | 0.0 | 61 | 79 | 65.0 | 61.0 | 30.019 | 7.26 | 0.7 | 313 | 0.00 | 0.00 | 0.00 | 0.00 |
| 05/07/26 7:57:33 AM | 29 | 0.0 | 0.0 | 61 | 78 | 65.1 | 61.1 | 30.020 | 7.26 | 0.7 | 320 | 0.00 | 0.00 | 0.00 | 0.00 |
| 05/07/26 7:58:19 AM | 35 | 0.0 | 0.0 | 61 | 78 | 65.1 | 61.3 | 30.019 | 7.26 | 0.7 | 323 | 0.00 | 0.00 | 0.00 | 0.00 |
| 05/07/26 7:59:32 AM | 36 | 0.0 | 0.0 | 61 | 78 | 65.1 | 61.5 | 30.019 | 7.26 | 0.7 | 327 | 0.00 | 0.00 | 0.00 | 0.00 |
| 05/07/26 8:00:24 AM | 34 | 2.0 | 3.0 | 61 | 77 | 65.2 | 61.7 | 30.021 | 7.26 | 0.8 | 330 | 0.00 | 0.00 | 0.00 | 0.00 |
| 05/07/26 8:01:37 AM | 37 | 2.0 | 3.0 | 61 | 77 | 65.2 | 62.0 | 30.021 | 7.26 | 0.8 | 334 | 0.00 | 0.00 | 0.00 | 0.00 |
| 05/07/26 8:02:26 AM | 34 | 1.0 | 3.0 | 61 | 76 | 65.2 | 62.1 | 30.019 | 7.26 | 0.8 | 338 | 0.00 | 0.00 | 0.00 | 0.00 |
| 05/07/26 8:03:21 AM | 34 | 0.0 | 3.0 | 61 | 76 | 65.3 | 62.2 | 30.020 | 7.26 | 0.8 | 341 | 0.00 | 0.00 | 0.00 | 0.00 |
| 05/07/26 8:04:28 AM | 36 | 2.0 | 3.0 | 61 | 76 | 65.3 | 62.5 | 30.021 | 7.26 | 0.8 | 341 | 0.00 | 0.00 | 0.00 | 0.00 |
| 05/07/26 8:05:17 AM | 35 | 1.0 | 3.0 | 61 | 75 | 65.3 | 62.6 | 30.019 | 7.26 | 0.8 | 348 | 0.00 | 0.00 | 0.00 | 0.00 |
| 05/07/26 8:06:30 AM | 32 | 1.0 | 3.0 | 61 | 74 | 65.4 | 62.7 | 30.020 | 7.26 | 0.9 | 352 | 0.00 | 0.00 | 0.00 | 0.00 |
| 05/07/26 8:07:22 AM | 35 | 2.0 | 3.0 | 61 | 74 | 65.4 | 62.9 | 30.020 | 7.26 | 0.9 | 352 | 0.00 | 0.00 | 0.00 | 0.00 |
| 05/07/26 8:08:35 AM | 35 | 1.0 | 3.0 | 61 | 73 | 65.4 | 63.0 | 30.020 | 7.26 | 0.9 | 359 | 0.00 | 0.00 | 0.00 | 0.00 |
| 05/07/26 8:09:21 AM | 38 | 1.0 | 3.0 | 61 | 73 | 65.5 | 63.1 | 30.021 | 7.26 | 0.9 | 360 | 0.00 | 0.00 | 0.00 | 0.00 |
| 05/07/26 8:10:34 AM | 36 | 1.0 | 3.0 | 61 | 73 | 65.6 | 63.4 | 30.022 | 7.26 | 0.9 | 364 | 0.00 | 0.00 | 0.00 | 0.00 |
| 05/07/26 8:11:26 AM | 34 | 2.0 | 3.0 | 61 | 72 | 65.6 | 63.5 | 30.022 | 7.26 | 0.9 | 371 | 0.00 | 0.00 | 0.00 | 0.00 |
| 05/07/26 8:12:18 AM | 35 | 2.0 | 3.0 | 61 | 71 | 65.6 | 63.6 | 30.022 | 7.26 | 0.9 | 371 | 0.00 | 0.00 | 0.00 | 0.00 |
| 05/07/26 8:13:31 AM | 38 | 1.0 | 3.0 | 61 | 71 | 65.7 | 63.8 | 30.019 | 7.26 | 1.0 | 378 | 0.00 | 0.00 | 0.00 | 0.00 |
| 05/07/26 8:14:20 AM | 36 | 1.0 | 3.0 | 61 | 71 | 65.7 | 63.9 | 30.022 | 7.26 | 1.0 | 380 | 0.00 | 0.00 | 0.00 | 0.00 |
| 05/07/26 8:15:33 AM | 36 | 1.0 | 3.0 | 61 | 70 | 65.7 | 64.0 | 30.023 | 7.26 | 1.0 | 383 | 0.00 | 0.00 | 0.00 | 0.00 |
| 05/07/26 8:16:25 AM | 35 | 2.0 | 3.0 | 61 | 70 | 65.7 | 64.3 | 30.022 | 7.26 | 1.0 | 387 | 0.00 | 0.00 | 0.00 | 0.00 |
| 05/07/26 8:17:35 AM | 32 | 2.0 | 3.0 | 61 | 70 | 65.7 | 64.4 | 30.022 | 7.26 | 1.0 | 390 | 0.00 | 0.00 | 0.00 | 0.00 |
| 05/07/26 8:18:27 AM | 32 | 0.0 | 3.0 | 61 | 69 | 65.8 | 64.5 | 30.022 | 7.26 | 1.0 | 394 | 0.00 | 0.00 | 0.00 | 0.00 |
| 05/07/26 8:19:19 AM | 38 | 0.0 | 3.0 | 61 | 69 | 65.8 | 64.7 | 30.024 | 7.26 | 1.0 | 397 | 0.00 | 0.00 | 0.00 | 0.00 |
| 05/07/26 8:20:29 AM | 37 | 1.0 | 3.0 | 61 | 68 | 65.8 | 64.8 | 30.023 | 7.26 | 1.1 | 401 | 0.00 | 0.00 | 0.00 | 0.00 |
| 05/07/26 8:21:21 AM | 38 | 2.0 | 3.0 | 61 | 68 | 65.9 | 64.9 | 30.021 | 7.26 | 1.1 | 404 | 0.00 | 0.00 | 0.00 | 0.00 |
| 05/07/26 8:22:31 AM | 36 | 0.0 | 3.0 | 61 | 68 | 65.9 | 65.0 | 30.021 | 7.26 | 1.1 | 404 | 0.00 | 0.00 | 0.00 | 0.00 |
| 05/07/26 8:23:23 AM | 34 | 0.0 | 3.0 | 61 | 68 | 65.9 | 65.2 | 30.026 | 7.26 | 1.1 | 411 | 0.00 | 0.00 | 0.00 | 0.00 |
| 05/07/26 8:24:15 AM | 32 | 1.0 | 3.0 | 61 | 67 | 65.9 | 65.2 | 30.022 | 7.26 | 1.1 | 413 | 0.00 | 0.00 | 0.00 | 0.00 |
| 05/07/26 8:25:26 AM | 32 | 0.0 | 3.0 | 61 | 67 | 66.0 | 65.5 | 30.023 | 7.26 | 1.1 | 417 | 0.00 | 0.00 | 0.00 | 0.00 |
| 05/07/26 8:26:36 AM | 39 | 0.0 | 3.0 | 61 | 67 | 66.0 | 65.7 | 30.023 | 7.26 | 1.2 | 424 | 0.00 | 0.00 | 0.00 | 0.00 |
| 05/07/26 8:27:28 AM | 38 | 1.0 | 3.0 | 61 | 67 | 66.0 | 65.8 | 30.023 | 7.26 | 1.2 | 427 | 0.00 | 0.00 | 0.00 | 0.00 |
| 05/07/26 8:28:20 AM | 36 | 3.0 | 3.0 | 61 | 66 | 66.0 | 65.9 | 30.025 | 7.26 | 1.2 | 431 | 0.00 | 0.00 | 0.00 | 0.00 |
| 05/07/26 8:29:33 AM | 31 | 0.0 | 4.0 | 61 | 66 | 66.1 | 66.1 | 30.022 | 7.26 | 1.2 | 432 | 0.00 | 0.00 | 0.00 | 0.00 |
| 05/07/26 8:30:22 AM | 35 | 3.0 | 4.0 | 61 | 66 | 66.1 | 66.2 | 30.025 | 7.26 | 1.2 | 436 | 0.00 | 0.00 | 0.00 | 0.00 |
| 05/07/26 8:31:29 AM | 36 | 3.0 | 4.0 | 61 | 65 | 66.1 | 66.3 | 30.024 | 7.26 | 1.3 | 439 | 0.00 | 0.00 | 0.00 | 0.00 |
| 05/07/26 8:32:24 AM | 36 | 3.0 | 4.0 | 61 | 65 | 66.2 | 66.4 | 30.023 | 7.26 | 1.3 | 443 | 0.00 | 0.00 | 0.00 | 0.00 |
| 05/07/26 8:33:34 AM | 36 | 2.0 | 5.0 | 61 | 64 | 66.1 | 66.5 | 30.025 | 7.26 | 1.3 | 448 | 0.00 | 0.00 | 0.00 | 0.00 |
| 05/07/26 8:34:26 AM | 36 | 1.0 | 5.0 | 61 | 64 | 66.2 | 66.6 | 30.023 | 7.26 | 1.3 | 450 | 0.00 | 0.00 | 0.00 | 0.00 |
| 05/07/26 8:35:21 AM | 34 | 1.0 | 5.0 | 61 | 64 | 66.3 | 66.7 | 30.022 | 7.26 | 1.3 | 454 | 0.00 | 0.00 | 0.00 | 0.00 |
| 05/07/26 8:36:28 AM | 36 | 0.0 | 5.0 | 61 | 63 | 66.2 | 66.7 | 30.021 | 7.26 | 1.3 | 457 | 0.00 | 0.00 | 0.00 | 0.00 |
| 05/07/26 8:37:20 AM | 35 | 0.0 | 5.0 | 61 | 63 | 66.3 | 66.8 | 30.023 | 7.26 | 1.3 | 459 | 0.00 | 0.00 | 0.00 | 0.00 |
| 05/07/26 8:38:30 AM | 37 | 1.0 | 5.0 | 61 | 63 | 66.3 | 66.9 | 30.023 | 7.26 | 1.3 | 459 | 0.00 | 0.00 | 0.00 | 0.00 |
| 05/07/26 8:39:25 AM | 31 | 1.0 | 5.0 | 61 | 62 | 66.4 | 67.0 | 30.024 | 7.26 | 1.4 | 466 | 0.00 | 0.00 | 0.00 | 0.00 |
| 05/07/26 8:40:17 AM | 36 | 0.0 | 5.0 | 61 | 62 | 66.4 | 67.1 | 30.025 | 7.26 | 1.4 | 469 | 0.00 | 0.00 | 0.00 | 0.00 |
| 05/07/26 8:41:27 AM | 36 | 1.0 | 5.0 | 61 | 62 | 66.4 | 67.2 | 30.024 | 7.26 | 1.4 | 476 | 0.00 | 0.00 | 0.00 | 0.00 |
| 05/07/26 8:42:19 AM | 34 | 0.0 | 5.0 | 61 | 62 | 66.5 | 67.3 | 30.026 | 7.26 | 1.4 | 476 | 0.00 | 0.00 | 0.00 | 0.00 |
| 05/07/26 8:43:29 AM | 38 | 0.0 | 5.0 | 61 | 62 | 66.5 | 67.5 | 30.025 | 7.26 | 1.5 | 482 | 0.00 | 0.00 | 0.00 | 0.00 |
| 05/07/26 8:44:21 AM | 35 | 0.0 | 5.0 | 61 | 62 | 66.5 | 67.6 | 30.024 | 7.26 | 1.5 | 483 | 0.00 | 0.00 | 0.00 | 0.00 |
| 05/07/26 8:45:37 AM | 38 | 0.0 | 5.0 | 61 | 63 | 66.5 | 67.7 | 30.027 | 7.26 | 1.5 | 487 | 0.00 | 0.00 | 0.00 | 0.00 |
| 05/07/26 8:46:23 AM | 32 | 0.0 | 5.0 | 61 | 62 | 66.5 | 67.9 | 30.026 | 7.26 | 1.5 | 489 | 0.00 | 0.00 | 0.00 | 0.00 |
| 05/07/26 8:47:33 AM | 38 | 0.0 | 5.0 | 61 | 62 | 66.6 | 68.0 | 30.026 | 7.26 | 1.5 | 492 | 0.00 | 0.00 | 0.00 | 0.00 |
| 05/07/26 8:48:28 AM | 37 | 1.0 | 5.0 | 61 | 62 | 66.6 | 68.1 | 30.025 | 7.26 | 1.6 | 494 | 0.00 | 0.00 | 0.00 | 0.00 |
| 05/07/26 8:49:17 AM | 32 | 0.0 | 5.0 | 61 | 62 | 66.6 | 68.2 | 30.024 | 7.26 | 1.6 | 497 | 0.00 | 0.00 | 0.00 | 0.00 |
| 05/07/26 8:50:30 AM | 35 | 1.0 | 5.0 | 61 | 62 | 66.7 | 68.3 | 30.027 | 7.26 | 1.6 | 499 | 0.00 | 0.00 | 0.00 | 0.00 |
| 05/07/26 8:51:26 AM | 38 | 1.0 | 5.0 | 61 | 62 | 66.7 | 68.5 | 30.026 | 7.26 | 1.6 | 503 | 0.00 | 0.00 | 0.00 | 0.00 |
| 05/07/26 8:52:33 AM | 35 | 3.0 | 5.0 | 61 | 61 | 66.7 | 68.6 | 30.026 | 7.26 | 1.7 | 506 | 0.00 | 0.00 | 0.00 | 0.00 |
| 05/07/26 8:53:25 AM | 35 | 4.0 | 5.0 | 61 | 61 | 66.7 | 68.7 | 30.023 | 7.26 | 1.7 | 508 | 0.00 | 0.00 | 0.00 | 0.00 |
| 05/07/26 8:54:17 AM | 37 | 2.0 | 5.0 | 61 | 59 | 66.8 | 68.8 | 30.025 | 7.26 | 1.7 | 510 | 0.00 | 0.00 | 0.00 | 0.00 |
| 05/07/26 8:55:30 AM | 37 | 2.0 | 5.0 | 61 | 59 | 66.8 | 68.9 | 30.027 | 7.26 | 1.7 | 512 | 0.00 | 0.00 | 0.00 | 0.00 |
| 05/07/26 8:56:22 AM | 36 | 2.0 | 5.0 | 61 | 60 | 66.8 | 69.0 | 30.027 | 7.26 | 1.7 | 512 | 0.00 | 0.00 | 0.00 | 0.00 |
| 05/07/26 8:57:29 AM | 34 | 2.0 | 5.0 | 61 | 59 | 66.8 | 69.1 | 30.024 | 7.26 | 1.7 | 519 | 0.00 | 0.00 | 0.00 | 0.00 |
| 05/07/26 8:58:21 AM | 36 | 1.0 | 5.0 | 61 | 59 | 66.9 | 69.2 | 30.023 | 7.26 | 1.7 | 519 | 0.00 | 0.00 | 0.00 | 0.00 |
| 05/07/26 8:59:34 AM | 37 | 1.0 | 5.0 | 61 | 59 | 66.9 | 69.2 | 30.024 | 7.26 | 1.8 | 522 | 0.00 | 0.00 | 0.00 | 0.00 |
| 05/07/26 9:00:29 AM | 32 | 1.0 | 5.0 | 61 | 59 | 67.0 | 69.3 | 30.025 | 7.26 | 1.8 | 524 | 0.00 | 0.00 | 0.00 | 0.00 |
| 05/07/26 9:01:18 AM | 32 | 1.0 | 5.0 | 61 | 59 | 67.0 | 69.4 | 30.024 | 7.26 | 1.8 | 524 | 0.00 | 0.00 | 0.00 | 0.00 |
| 05/07/26 9:02:25 AM | 36 | 0.0 | 5.0 | 61 | 58 | 67.0 | 69.4 | 30.022 | 7.26 | 1.8 | 526 | 0.00 | 0.00 | 0.00 | 0.00 |
| 05/07/26 9:03:17 AM | 31 | 1.0 | 5.0 | 61 | 58 | 67.0 | 69.5 | 30.020 | 7.26 | 1.9 | 524 | 0.00 | 0.00 | 0.00 | 0.00 |
| 05/07/26 9:04:27 AM | 35 | 1.0 | 5.0 | 61 | 58 | 67.1 | 69.5 | 30.022 | 7.26 | 1.9 | 524 | 0.00 | 0.00 | 0.00 | 0.00 |
| 05/07/26 9:05:19 AM | 36 | 3.0 | 5.0 | 61 | 58 | 67.0 | 69.6 | 30.022 | 7.26 | 1.9 | 522 | 0.00 | 0.00 | 0.00 | 0.00 |
| 05/07/26 9:06:32 AM | 34 | 2.0 | 6.0 | 61 | 58 | 67.1 | 69.7 | 30.021 | 7.26 | 1.9 | 522 | 0.00 | 0.00 | 0.00 | 0.00 |
| 05/07/26 9:07:24 AM | 36 | 2.0 | 6.0 | 61 | 57 | 67.1 | 69.8 | 30.017 | 7.26 | 1.9 | 522 | 0.00 | 0.00 | 0.00 | 0.00 |
| 05/07/26 9:08:31 AM | 35 | 3.0 | 6.0 | 61 | 57 | 67.2 | 69.9 | 30.021 | 7.26 | 2.0 | 526 | 0.00 | 0.00 | 0.00 | 0.00 |
| 05/07/26 9:09:23 AM | 35 | 1.0 | 6.0 | 61 | 57 | 67.1 | 69.9 | 30.021 | 7.26 | 2.0 | 526 | 0.00 | 0.00 | 0.00 | 0.00 |
| 05/07/26 9:10:36 AM | 35 | 2.0 | 6.0 | 61 | 57 | 67.2 | 70.0 | 30.018 | 7.26 | 2.0 | 527 | 0.00 | 0.00 | 0.00 | 0.00 |
| 05/07/26 9:11:28 AM | 32 | 2.0 | 6.0 | 61 | 57 | 67.3 | 70.0 | 30.019 | 7.26 | 2.0 | 527 | 0.00 | 0.00 | 0.00 | 0.00 |
| 05/07/26 9:12:18 AM | 35 | 3.0 | 6.0 | 61 | 57 | 67.3 | 70.1 | 30.018 | 7.26 | 2.0 | 527 | 0.00 | 0.00 | 0.00 | 0.00 |
| 05/07/26 9:13:28 AM | 32 | 2.0 | 6.0 | 61 | 57 | 67.2 | 70.1 | 30.017 | 7.26 | 2.1 | 524 | 0.00 | 0.00 | 0.00 | 0.00 |
| 05/07/26 9:14:20 AM | 34 | 3.0 | 6.0 | 61 | 57 | 67.3 | 70.1 | 30.016 | 7.26 | 2.1 | 524 | 0.00 | 0.00 | 0.00 | 0.00 |
| 05/07/26 9:15:33 AM | 37 | 1.0 | 6.0 | 61 | 56 | 67.3 | 70.1 | 30.017 | 7.26 | 2.1 | 527 | 0.00 | 0.00 | 0.00 | 0.00 |
| 05/07/26 9:16:25 AM | 36 | 1.0 | 6.0 | 61 | 56 | 67.3 | 70.2 | 30.018 | 7.26 | 2.2 | 524 | 0.00 | 0.00 | 0.00 | 0.00 |
| 05/07/26 9:17:35 AM | 35 | 3.0 | 6.0 | 61 | 58 | 67.4 | 70.3 | 30.017 | 7.26 | 2.2 | 520 | 0.00 | 0.00 | 0.00 | 0.00 |
| 05/07/26 9:18:24 AM | 32 | 2.0 | 6.0 | 61 | 58 | 67.4 | 70.4 | 30.015 | 7.26 | 2.2 | 520 | 0.00 | 0.00 | 0.00 | 0.00 |
| 05/07/26 9:19:37 AM | 35 | 1.0 | 6.0 | 61 | 57 | 67.4 | 70.5 | 30.016 | 7.26 | 2.2 | 520 | 0.00 | 0.00 | 0.00 | 0.00 |
| 05/07/26 9:20:29 AM | 32 | 2.0 | 6.0 | 61 | 57 | 67.4 | 70.5 | 30.015 | 7.26 | 2.2 | 520 | 0.00 | 0.00 | 0.00 | 0.00 |
| 05/07/26 9:21:18 AM | 35 | 4.0 | 6.0 | 61 | 57 | 67.5 | 70.7 | 30.015 | 7.26 | 2.2 | 520 | 0.00 | 0.00 | 0.00 | 0.00 |
| 05/07/26 9:22:31 AM | 35 | 2.0 | 6.0 | 61 | 56 | 67.5 | 70.8 | 30.014 | 7.26 | 2.3 | 517 | 0.00 | 0.00 | 0.00 | 0.00 |
| 05/07/26 9:23:23 AM | 35 | 2.0 | 6.0 | 61 | 55 | 67.5 | 70.8 | 30.015 | 7.26 | 2.3 | 517 | 0.00 | 0.00 | 0.00 | 0.00 |
| 05/07/26 9:24:34 AM | 32 | 1.0 | 6.0 | 61 | 55 | 67.5 | 70.8 | 30.016 | 7.26 | 2.3 | 515 | 0.00 | 0.00 | 0.00 | 0.00 |
| 05/07/26 9:25:25 AM | 34 | 1.0 | 6.0 | 61 | 55 | 67.5 | 70.8 | 30.014 | 7.26 | 2.3 | 515 | 0.00 | 0.00 | 0.00 | 0.00 |
| 05/07/26 9:26:18 AM | 35 | 2.0 | 6.0 | 61 | 56 | 67.6 | 70.9 | 30.017 | 7.26 | 2.3 | 515 | 0.00 | 0.00 | 0.00 | 0.00 |
| 05/07/26 9:27:28 AM | 35 | 1.0 | 6.0 | 61 | 55 | 67.6 | 71.0 | 30.016 | 7.26 | 2.4 | 517 | 0.00 | 0.00 | 0.00 | 0.00 |
| 05/07/26 9:28:20 AM | 36 | 0.0 | 6.0 | 61 | 55 | 67.6 | 71.1 | 30.017 | 7.26 | 2.4 | 512 | 0.00 | 0.00 | 0.00 | 0.00 |
| 05/07/26 9:29:27 AM | 36 | 0.0 | 6.0 | 61 | 56 | 67.6 | 71.2 | 30.016 | 7.26 | 2.4 | 513 | 0.00 | 0.00 | 0.00 | 0.00 |
| 05/07/26 9:30:22 AM | 32 | 2.0 | 6.0 | 61 | 56 | 67.6 | 71.3 | 30.015 | 7.26 | 2.4 | 512 | 0.00 | 0.00 | 0.00 | 0.00 |
| 05/07/26 9:31:32 AM | 32 | 5.0 | 6.0 | 61 | 56 | 67.7 | 71.4 | 30.015 | 7.26 | 2.5 | 513 | 0.00 | 0.00 | 0.00 | 0.00 |
| 05/07/26 9:32:24 AM | 37 | 1.0 | 6.0 | 61 | 56 | 67.6 | 71.5 | 30.018 | 7.26 | 2.5 | 513 | 0.00 | 0.00 | 0.00 | 0.00 |
| 05/07/26 9:33:16 AM | 34 | 1.0 | 6.0 | 61 | 55 | 67.7 | 71.6 | 30.015 | 7.26 | 2.5 | 515 | 0.00 | 0.00 | 0.00 | 0.00 |
| 05/07/26 9:34:23 AM | 35 | 3.0 | 6.0 | 61 | 55 | 67.7 | 71.7 | 30.017 | 7.26 | 2.5 | 515 | 0.00 | 0.00 | 0.00 | 0.00 |
| 05/07/26 9:35:15 AM | 35 | 2.0 | 6.0 | 61 | 55 | 67.8 | 71.8 | 30.016 | 7.26 | 2.5 | 512 | 0.00 | 0.00 | 0.00 | 0.00 |
| 05/07/26 9:36:28 AM | 36 | 2.0 | 6.0 | 61 | 54 | 67.8 | 71.8 | 30.016 | 7.26 | 2.6 | 512 | 0.00 | 0.00 | 0.00 | 0.00 |
| 05/07/26 9:37:20 AM | 32 | 2.0 | 6.0 | 61 | 54 | 67.8 | 71.9 | 30.017 | 7.26 | 2.6 | 512 | 0.00 | 0.00 | 0.00 | 0.00 |
| 05/07/26 9:38:34 AM | 38 | 2.0 | 6.0 | 61 | 54 | 67.8 | 71.9 | 30.015 | 7.26 | 2.6 | 513 | 0.00 | 0.00 | 0.00 | 0.00 |
| 05/07/26 9:39:23 AM | 37 | 3.0 | 6.0 | 61 | 54 | 67.9 | 72.0 | 30.016 | 7.26 | 2.6 | 515 | 0.00 | 0.00 | 0.00 | 0.00 |
| 05/07/26 9:40:33 AM | 36 | 1.0 | 6.0 | 61 | 54 | 67.8 | 72.0 | 30.015 | 7.26 | 2.7 | 519 | 0.00 | 0.00 | 0.00 | 0.00 |
| 05/07/26 9:41:25 AM | 36 | 2.0 | 6.0 | 61 | 53 | 67.9 | 72.0 | 30.015 | 7.26 | 2.7 | 519 | 0.00 | 0.00 | 0.00 | 0.00 |
| 05/07/26 9:42:17 AM | 32 | 4.0 | 9.0 | 61 | 54 | 67.9 | 72.0 | 30.015 | 7.26 | 2.7 | 520 | 0.00 | 0.00 | 0.00 | 0.00 |
| 05/07/26 9:43:30 AM | 31 | 1.0 | 9.0 | 61 | 54 | 67.9 | 72.1 | 30.015 | 7.26 | 2.7 | 526 | 0.00 | 0.00 | 0.00 | 0.00 |
| 05/07/26 9:44:22 AM | 35 | 4.0 | 9.0 | 61 | 53 | 67.9 | 72.2 | 30.014 | 7.26 | 2.7 | 527 | 0.00 | 0.00 | 0.00 | 0.00 |
| 05/07/26 9:45:32 AM | 38 | 3.0 | 9.0 | 61 | 53 | 67.9 | 72.2 | 30.015 | 7.26 | 2.8 | 527 | 0.00 | 0.00 | 0.00 | 0.00 |
| 05/07/26 9:46:24 AM | 35 | 4.0 | 9.0 | 61 | 54 | 68.0 | 72.3 | 30.015 | 7.26 | 2.8 | 531 | 0.00 | 0.00 | 0.00 | 0.00 |
| 05/07/26 9:47:34 AM | 35 | 2.0 | 9.0 | 61 | 54 | 68.0 | 72.4 | 30.017 | 7.26 | 2.8 | 534 | 0.00 | 0.00 | 0.00 | 0.00 |
| 05/07/26 9:48:27 AM | 32 | 0.0 | 9.0 | 61 | 54 | 68.0 | 72.5 | 30.015 | 7.26 | 2.8 | 538 | 0.00 | 0.00 | 0.00 | 0.00 |
| 05/07/26 9:49:19 AM | 32 | 4.0 | 9.0 | 61 | 54 | 68.0 | 72.5 | 30.014 | 7.26 | 2.9 | 541 | 0.00 | 0.00 | 0.00 | 0.00 |
| 05/07/26 9:50:29 AM | 32 | 2.0 | 9.0 | 61 | 54 | 68.1 | 72.6 | 30.017 | 7.26 | 2.9 | 548 | 0.00 | 0.00 | 0.00 | 0.00 |
| 05/07/26 9:51:18 AM | 38 | 3.0 | 9.0 | 61 | 54 | 68.1 | 72.8 | 30.016 | 7.26 | 2.9 | 550 | 0.00 | 0.00 | 0.00 | 0.00 |
| 05/07/26 9:52:34 AM | 38 | 6.0 | 9.0 | 61 | 54 | 68.1 | 72.8 | 30.014 | 7.26 | 2.9 | 552 | 0.00 | 0.00 | 0.00 | 0.00 |
| 05/07/26 9:53:23 AM | 35 | 6.0 | 9.0 | 61 | 54 | 68.1 | 72.9 | 30.016 | 7.26 | 2.9 | 557 | 0.00 | 0.00 | 0.00 | 0.00 |
| 05/07/26 9:54:15 AM | 36 | 3.0 | 9.0 | 61 | 53 | 68.1 | 72.9 | 30.015 | 7.26 | 3.0 | 563 | 0.00 | 0.00 | 0.00 | 0.00 |
| 05/07/26 9:55:28 AM | 37 | 5.0 | 9.0 | 61 | 53 | 68.2 | 72.9 | 30.015 | 7.26 | 3.0 | 575 | 0.00 | 0.00 | 0.00 | 0.00 |
| 05/07/26 9:56:17 AM | 38 | 2.0 | 9.0 | 61 | 53 | 68.2 | 72.9 | 30.015 | 7.26 | 3.0 | 575 | 0.00 | 0.00 | 0.00 | 0.00 |
| 05/07/26 9:57:31 AM | 34 | 1.0 | 9.0 | 61 | 54 | 68.3 | 72.9 | 30.015 | 7.26 | 3.0 | 582 | 0.00 | 0.00 | 0.00 | 0.00 |
| 05/07/26 9:58:20 AM | 35 | 2.0 | 9.0 | 61 | 53 | 68.3 | 72.9 | 30.014 | 7.26 | 3.1 | 589 | 0.00 | 0.00 | 0.00 | 0.00 |
| 05/07/26 9:59:33 AM | 35 | 0.0 | 9.0 | 61 | 53 | 68.3 | 73.0 | 30.015 | 7.26 | 3.1 | 599 | 0.00 | 0.00 | 0.00 | 0.00 |
| 05/07/26 10:00:25 AM | 38 | 1.0 | 9.0 | 61 | 53 | 68.3 | 73.0 | 30.016 | 7.26 | 3.1 | 599 | 0.00 | 0.00 | 0.00 | 0.00 |
| 05/07/26 10:01:35 AM | 34 | 0.0 | 9.0 | 61 | 54 | 68.3 | 73.2 | 30.015 | 7.26 | 3.1 | 608 | 0.00 | 0.00 | 0.00 | 0.00 |
| 05/07/26 10:02:24 AM | 34 | 2.0 | 9.0 | 61 | 53 | 68.4 | 73.3 | 30.015 | 7.26 | 3.2 | 615 | 0.00 | 0.00 | 0.00 | 0.00 |
| 05/07/26 10:03:16 AM | 36 | 3.0 | 9.0 | 61 | 53 | 68.4 | 73.5 | 30.018 | 7.26 | 3.2 | 624 | 0.00 | 0.00 | 0.00 | 0.00 |
| 05/07/26 10:04:29 AM | 34 | 4.0 | 9.0 | 61 | 52 | 68.4 | 73.7 | 30.017 | 7.26 | 3.2 | 631 | 0.00 | 0.00 | 0.00 | 0.00 |
| 05/07/26 10:05:24 AM | 35 | 3.0 | 9.0 | 61 | 52 | 68.4 | 73.8 | 30.018 | 7.26 | 3.2 | 636 | 0.00 | 0.00 | 0.00 | 0.00 |
| 05/07/26 10:06:32 AM | 38 | 2.0 | 9.0 | 61 | 53 | 68.4 | 73.9 | 30.017 | 7.26 | 3.2 | 643 | 0.00 | 0.00 | 0.00 | 0.00 |
| 05/07/26 10:07:20 AM | 31 | 2.0 | 9.0 | 61 | 52 | 68.5 | 74.0 | 30.017 | 7.26 | 3.3 | 654 | 0.00 | 0.00 | 0.00 | 0.00 |
| 05/07/26 10:08:34 AM | 34 | 1.0 | 9.0 | 61 | 51 | 68.5 | 74.0 | 30.015 | 7.26 | 3.3 | 663 | 0.00 | 0.00 | 0.00 | 0.00 |
| 05/07/26 10:09:26 AM | 35 | 2.0 | 9.0 | 61 | 51 | 68.5 | 74.0 | 30.016 | 7.26 | 3.3 | 675 | 0.00 | 0.00 | 0.00 | 0.00 |
| 05/07/26 10:10:18 AM | 38 | 1.0 | 9.0 | 61 | 51 | 68.5 | 74.1 | 30.015 | 7.26 | 3.3 | 687 | 0.00 | 0.00 | 0.00 | 0.00 |
| 05/07/26 10:11:31 AM | 36 | 2.0 | 9.0 | 61 | 51 | 68.6 | 74.0 | 30.016 | 7.26 | 3.4 | 707 | 0.00 | 0.00 | 0.00 | 0.00 |
| 05/07/26 10:12:20 AM | 32 | 4.0 | 9.0 | 61 | 51 | 68.6 | 74.1 | 30.015 | 7.26 | 3.4 | 707 | 0.00 | 0.00 | 0.00 | 0.00 |
| 05/07/26 10:13:30 AM | 35 | 2.0 | 9.0 | 61 | 50 | 68.6 | 74.0 | 30.016 | 7.26 | 3.4 | 707 | 0.00 | 0.00 | 0.00 | 0.00 |
| 05/07/26 10:14:22 AM | 34 | 2.0 | 9.0 | 61 | 50 | 68.6 | 74.0 | 30.017 | 7.26 | 3.4 | 707 | 0.00 | 0.00 | 0.00 | 0.00 |
| 05/07/26 10:15:57 AM | 34 | 4.0 | 9.0 | 61 | 51 | 68.7 | 74.0 | 30.015 | 7.26 | 3.5 | 737 | 0.00 | 0.00 | 0.00 | 0.00 |
| 05/07/26 10:16:28 AM | 34 | 3.0 | 9.0 | 61 | 52 | 68.7 | 74.1 | 30.017 | 7.26 | 3.5 | 737 | 0.00 | 0.00 | 0.00 | 0.00 |
| 05/07/26 10:17:20 AM | 35 | 3.0 | 9.0 | 61 | 52 | 68.7 | 74.2 | 30.015 | 7.26 | 3.5 | 742 | 0.00 | 0.00 | 0.00 | 0.00 |
| 05/07/26 10:18:30 AM | 37 | 5.0 | 9.0 | 61 | 51 | 68.7 | 74.4 | 30.016 | 7.26 | 3.5 | 747 | 0.00 | 0.00 | 0.00 | 0.00 |
| 05/07/26 10:19:22 AM | 35 | 4.0 | 9.0 | 61 | 51 | 68.8 | 74.5 | 30.015 | 7.26 | 3.6 | 752 | 0.00 | 0.00 | 0.00 | 0.00 |
| 05/07/26 10:20:35 AM | 35 | 9.0 | 9.0 | 61 | 51 | 68.7 | 74.6 | 30.015 | 7.26 | 3.6 | 758 | 0.00 | 0.00 | 0.00 | 0.00 |
| 05/07/26 10:21:24 AM | 35 | 4.0 | 9.0 | 61 | 50 | 68.8 | 74.6 | 30.015 | 7.26 | 3.6 | 758 | 0.00 | 0.00 | 0.00 | 0.00 |
| 05/07/26 10:22:16 AM | 36 | 1.0 | 9.0 | 61 | 50 | 68.9 | 74.6 | 30.013 | 7.26 | 3.6 | 768 | 0.00 | 0.00 | 0.00 | 0.00 |
| 05/07/26 10:23:26 AM | 34 | 3.0 | 9.0 | 61 | 50 | 68.8 | 74.5 | 30.014 | 7.26 | 3.6 | 772 | 0.00 | 0.00 | 0.00 | 0.00 |
| 05/07/26 10:24:18 AM | 32 | 1.0 | 9.0 | 61 | 50 | 68.9 | 74.5 | 30.014 | 7.26 | 3.7 | 773 | 0.00 | 0.00 | 0.00 | 0.00 |
| 05/07/26 10:25:28 AM | 35 | 0.0 | 9.0 | 61 | 50 | 68.9 | 74.5 | 30.015 | 7.26 | 3.7 | 773 | 0.00 | 0.00 | 0.00 | 0.00 |
| 05/07/26 10:26:20 AM | 35 | 2.0 | 9.0 | 61 | 50 | 68.9 | 74.5 | 30.015 | 7.26 | 3.8 | 782 | 0.00 | 0.00 | 0.00 | 0.00 |
| 05/07/26 10:27:33 AM | 34 | 2.0 | 9.0 | 61 | 51 | 68.9 | 74.5 | 30.013 | 7.26 | 3.8 | 784 | 0.00 | 0.00 | 0.00 | 0.00 |
| 05/07/26 10:28:19 AM | 35 | 2.0 | 9.0 | 61 | 50 | 69.0 | 74.4 | 30.012 | 7.26 | 3.8 | 786 | 0.00 | 0.00 | 0.00 | 0.00 |
| 05/07/26 10:29:33 AM | 35 | 3.0 | 9.0 | 61 | 50 | 69.0 | 74.4 | 30.015 | 7.26 | 3.8 | 791 | 0.00 | 0.00 | 0.00 | 0.00 |
| 05/07/26 10:30:25 AM | 37 | 4.0 | 9.0 | 61 | 50 | 69.0 | 74.4 | 30.015 | 7.26 | 3.9 | 795 | 0.00 | 0.00 | 0.00 | 0.00 |
| 05/07/26 10:31:17 AM | 36 | 1.0 | 9.0 | 61 | 50 | 69.0 | 74.4 | 30.013 | 7.26 | 3.9 | 798 | 0.00 | 0.00 | 0.00 | 0.00 |
| 05/07/26 10:32:30 AM | 34 | 4.0 | 9.0 | 61 | 50 | 69.0 | 74.5 | 30.012 | 7.26 | 3.9 | 800 | 0.00 | 0.00 | 0.00 | 0.00 |
| 05/07/26 10:33:22 AM | 32 | 1.0 | 9.0 | 61 | 50 | 69.1 | 74.5 | 30.012 | 7.26 | 3.9 | 802 | 0.00 | 0.00 | 0.00 | 0.00 |
University Police wind advisory reference
For campus closure information please call the campus Emergency Hotline at (909) 537-5999
© All rights reserved. Unauthorized duplication or distribution is prohibited
Never base important decisions on this or any weather information obtained from the Internet
California State University, San Bernardino
5500 University Parkway, San Bernardino, CA. 92407
Phone: (909) 537-5108, Email: Weather Webmaster
Last Updated: